Time,TemperatureF,DewpointF,PressureIn,WindDirection,WindDirectionDegrees,WindSpeedMPH,WindSpeedGustMPH,Humidity,HourlyPrecipIn,Conditions,Clouds,dailyrainin,SoftwareType,DateUTC
2013-10-12 00:00:00,42.1,-10.6,30.01,North,0,0.0,0.0,1,0.00,,,0.00,WUHU216HW,2013-10-12 04:00:00,
2013-10-12 00:02:00,42.1,-10.6,30.01,North,0,0.0,0.0,1,0.00,,,0.00,WUHU216HW,2013-10-12 04:02:00,
2013-10-12 00:03:00,41.9,-10.7,30.01,North,0,0.0,0.0,1,0.00,,,0.00,WUHU216HW,2013-10-12 04:03:00,
2013-10-12 00:04:00,41.9,-10.7,30.01,North,0,0.0,0.0,1,0.00,,,0.00,WUHU216HW,2013-10-12 04:04:00,
2013-10-12 00:05:00,41.9,-10.7,30.01,North,0,0.0,0.0,1,0.00,,,0.00,WUHU216HW,2013-10-12 04:05:00,
2013-10-12 00:07:00,41.9,-10.7,30.01,North,0,0.0,0.0,1,0.00,,,0.00,WUHU216HW,2013-10-12 04:07:00,
2013-10-12 00:08:00,41.9,-10.7,30.01,North,0,0.0,0.0,1,0.00,,,0.00,WUHU216HW,2013-10-12 04:08:00,
2013-10-12 00:09:00,42.1,-10.6,30.01,North,0,0.0,0.0,1,0.00,,,0.00,WUHU216HW,2013-10-12 04:09:00,
2013-10-12 00:10:00,42.1,-10.6,30.01,North,0,0.0,0.0,1,0.00,,,0.00,WUHU216HW,2013-10-12 04:10:00,
2013-10-12 00:12:00,42.1,-10.6,30.01,North,0,0.0,0.0,1,0.00,,,0.00,WUHU216HW,2013-10-12 04:12:00,
2013-10-12 00:13:00,42.1,-10.6,30.01,North,0,0.0,0.0,1,0.00,,,0.00,WUHU216HW,2013-10-12 04:13:00,
2013-10-12 00:14:00,42.1,-10.6,30.01,North,0,0.0,0.0,1,0.00,,,0.00,WUHU216HW,2013-10-12 04:14:00,
2013-10-12 00:15:00,42.1,-10.6,30.01,North,0,0.0,0.0,1,0.00,,,0.00,WUHU216HW,2013-10-12 04:15:00,
2013-10-12 00:17:00,41.9,-10.7,30.01,North,0,0.0,0.0,1,0.00,,,0.00,WUHU216HW,2013-10-12 04:17:00,
2013-10-12 00:18:00,41.9,-10.7,30.01,North,0,0.0,0.0,1,0.00,,,0.00,WUHU216HW,2013-10-12 04:18:00,
2013-10-12 00:19:00,41.8,-10.8,30.01,North,0,0.0,0.0,1,0.00,,,0.00,WUHU216HW,2013-10-12 04:19:00,
2013-10-12 00:20:00,41.8,-10.8,30.01,North,0,0.0,0.0,1,0.00,,,0.00,WUHU216HW,2013-10-12 04:20:00,
2013-10-12 00:22:00,41.8,-10.8,30.01,North,0,0.0,0.0,1,0.00,,,0.00,WUHU216HW,2013-10-12 04:22:00,
2013-10-12 00:23:00,41.6,-11.0,30.01,North,0,0.0,0.0,1,0.00,,,0.00,WUHU216HW,2013-10-12 04:23:00,
2013-10-12 00:24:00,41.6,-11.0,30.01,North,0,0.0,0.0,1,0.00,,,0.00,WUHU216HW,2013-10-12 04:24:00,
2013-10-12 00:25:00,41.4,-11.1,30.01,North,0,0.0,0.0,1,0.00,,,0.00,WUHU216HW,2013-10-12 04:25:00,
2013-10-12 00:27:00,41.4,-11.1,30.01,North,0,0.0,0.0,1,0.00,,,0.00,WUHU216HW,2013-10-12 04:27:00,
2013-10-12 00:28:00,41.4,-11.1,30.01,North,0,0.0,0.0,1,0.00,,,0.00,WUHU216HW,2013-10-12 04:28:00,
2013-10-12 00:29:00,41.4,-11.1,30.01,North,0,0.0,0.0,1,0.00,,,0.00,WUHU216HW,2013-10-12 04:29:00,
2013-10-12 00:30:00,41.4,-11.1,30.01,North,0,0.0,0.0,1,0.00,,,0.00,WUHU216HW,2013-10-12 04:30:00,
2013-10-12 00:32:00,41.4,-11.1,30.01,North,0,0.0,0.0,1,0.00,,,0.00,WUHU216HW,2013-10-12 04:32:00,
2013-10-12 00:33:00,41.4,-11.1,30.01,North,0,0.0,0.0,1,0.00,,,0.00,WUHU216HW,2013-10-12 04:33:00,
2013-10-12 00:34:00,41.4,-11.1,30.01,North,0,0.0,0.0,1,0.00,,,0.00,WUHU216HW,2013-10-12 04:34:00,
2013-10-12 00:35:00,41.4,-11.1,30.01,North,0,0.0,0.0,1,0.00,,,0.00,WUHU216HW,2013-10-12 04:35:00,
2013-10-12 00:37:00,41.4,-11.1,30.01,North,0,0.0,0.0,1,0.00,,,0.00,WUHU216HW,2013-10-12 04:37:00,
2013-10-12 00:38:00,41.4,-11.1,30.01,North,0,0.0,0.0,1,0.00,,,0.00,WUHU216HW,2013-10-12 04:38:00,
2013-10-12 00:39:00,41.4,-11.1,30.02,North,0,0.0,0.0,1,0.00,,,0.00,WUHU216HW,2013-10-12 04:39:00,
2013-10-12 00:40:00,41.4,-11.1,30.01,North,0,0.0,0.0,1,0.00,,,0.00,WUHU216HW,2013-10-12 04:40:00,
2013-10-12 00:42:00,41.2,-11.2,30.01,North,0,0.0,0.0,1,0.00,,,0.00,WUHU216HW,2013-10-12 04:42:00,
2013-10-12 00:43:00,41.2,-11.2,30.01,North,0,0.0,0.0,1,0.00,,,0.00,WUHU216HW,2013-10-12 04:43:00,
2013-10-12 00:44:00,41.2,-11.2,30.01,North,0,0.0,0.0,1,0.00,,,0.00,WUHU216HW,2013-10-12 04:44:00,
2013-10-12 00:45:00,41.0,-11.3,30.01,North,0,0.0,0.0,1,0.00,,,0.00,WUHU216HW,2013-10-12 04:45:00,
2013-10-12 00:47:00,41.2,-11.2,30.01,North,0,0.0,0.0,1,0.00,,,0.00,WUHU216HW,2013-10-12 04:47:00,
2013-10-12 00:48:00,41.2,-11.2,30.01,North,0,0.0,0.0,1,0.00,,,0.00,WUHU216HW,2013-10-12 04:48:00,
2013-10-12 00:49:00,41.2,-11.2,30.01,North,0,0.0,0.0,1,0.00,,,0.00,WUHU216HW,2013-10-12 04:49:00,
2013-10-12 00:50:00,41.2,-11.2,30.01,North,0,0.0,0.0,1,0.00,,,0.00,WUHU216HW,2013-10-12 04:50:00,
2013-10-12 00:52:00,41.4,-11.1,30.01,North,0,0.0,0.0,1,0.00,,,0.00,WUHU216HW,2013-10-12 04:52:00,
2013-10-12 00:53:00,41.4,-11.1,30.01,North,0,0.0,0.0,1,0.00,,,0.00,WUHU216HW,2013-10-12 04:53:00,
2013-10-12 00:54:00,41.4,-11.1,30.01,North,0,0.0,0.0,1,0.00,,,0.00,WUHU216HW,2013-10-12 04:54:00,
2013-10-12 00:55:00,41.4,-11.1,30.01,North,0,0.0,0.0,1,0.00,,,0.00,WUHU216HW,2013-10-12 04:55:00,
2013-10-12 00:57:00,41.4,-11.1,30.01,North,0,0.0,0.0,1,0.00,,,0.00,WUHU216HW,2013-10-12 04:57:00,
2013-10-12 00:58:00,41.4,-11.1,30.01,North,0,0.0,0.0,1,0.00,,,0.00,WUHU216HW,2013-10-12 04:58:00,
2013-10-12 00:59:00,41.4,-11.1,30.01,North,0,0.0,0.0,1,0.00,,,0.00,WUHU216HW,2013-10-12 04:59:00,
2013-10-12 01:00:00,41.4,-11.1,30.01,North,0,0.0,0.0,1,0.00,,,0.00,WUHU216HW,2013-10-12 05:00:00,
2013-10-12 01:02:00,41.2,-11.2,30.01,North,0,0.0,0.0,1,0.00,,,0.00,WUHU216HW,2013-10-12 05:02:00,
2013-10-12 01:03:00,41.2,-11.2,30.01,North,0,0.0,0.0,1,0.00,,,0.00,WUHU216HW,2013-10-12 05:03:00,
2013-10-12 01:04:00,41.2,-11.2,30.01,North,0,0.0,0.0,1,0.00,,,0.00,WUHU216HW,2013-10-12 05:04:00,
2013-10-12 01:05:00,41.0,-11.3,30.01,North,0,0.0,0.0,1,0.00,,,0.00,WUHU216HW,2013-10-12 05:05:00,
2013-10-12 01:07:00,41.0,-11.3,30.01,North,0,0.0,0.0,1,0.00,,,0.00,WUHU216HW,2013-10-12 05:07:00,
2013-10-12 01:08:00,41.0,-11.3,30.01,North,0,0.0,0.0,1,0.00,,,0.00,WUHU216HW,2013-10-12 05:08:00,
2013-10-12 01:09:00,41.0,-11.3,30.01,North,0,0.0,0.0,1,0.00,,,0.00,WUHU216HW,2013-10-12 05:09:00,
2013-10-12 01:10:00,41.0,-11.3,30.01,North,0,0.0,0.0,1,0.00,,,0.00,WUHU216HW,2013-10-12 05:10:00,
2013-10-12 01:12:00,41.0,-11.3,30.01,North,0,0.0,0.0,1,0.00,,,0.00,WUHU216HW,2013-10-12 05:12:00,
2013-10-12 01:13:00,41.0,-11.3,30.01,North,0,0.0,0.0,1,0.00,,,0.00,WUHU216HW,2013-10-12 05:13:00,
2013-10-12 01:14:00,40.9,-11.5,30.01,North,0,0.0,0.0,1,0.00,,,0.00,WUHU216HW,2013-10-12 05:14:00,
2013-10-12 01:15:00,40.9,-11.5,30.01,North,0,0.0,0.0,1,0.00,,,0.00,WUHU216HW,2013-10-12 05:15:00,
2013-10-12 01:17:00,40.9,-11.5,30.01,North,0,0.0,0.0,1,0.00,,,0.00,WUHU216HW,2013-10-12 05:17:00,
2013-10-12 01:18:00,40.7,-11.6,30.01,North,0,0.0,0.0,1,0.00,,,0.00,WUHU216HW,2013-10-12 05:18:00,
2013-10-12 01:19:00,40.7,-11.6,30.01,North,0,0.0,0.0,1,0.00,,,0.00,WUHU216HW,2013-10-12 05:19:00,
2013-10-12 01:20:00,40.7,-11.6,30.01,North,0,0.0,0.0,1,0.00,,,0.00,WUHU216HW,2013-10-12 05:20:00,
2013-10-12 01:22:00,40.7,-11.6,30.01,North,0,0.0,0.0,1,0.00,,,0.00,WUHU216HW,2013-10-12 05:22:00,
2013-10-12 01:24:00,40.7,-11.6,30.01,North,0,0.0,0.0,1,0.00,,,0.00,WUHU216HW,2013-10-12 05:24:00,
2013-10-12 01:25:00,40.7,-11.6,30.01,North,0,0.0,0.0,1,0.00,,,0.00,WUHU216HW,2013-10-12 05:25:00,
2013-10-12 01:27:00,40.7,-11.6,30.01,North,0,0.0,0.0,1,0.00,,,0.00,WUHU216HW,2013-10-12 05:27:00,
2013-10-12 01:29:00,40.7,-11.6,30.01,North,0,0.0,0.0,1,0.00,,,0.00,WUHU216HW,2013-10-12 05:29:00,
2013-10-12 01:30:00,40.9,-11.5,30.01,North,0,0.0,0.0,1,0.00,,,0.00,WUHU216HW,2013-10-12 05:30:00,
2013-10-12 01:32:00,40.9,-11.5,30.01,North,0,0.0,0.0,1,0.00,,,0.00,WUHU216HW,2013-10-12 05:32:00,
2013-10-12 01:33:00,40.7,-11.6,30.02,North,0,0.0,0.0,1,0.00,,,0.00,WUHU216HW,2013-10-12 05:33:00,
2013-10-12 01:34:00,40.7,-11.6,30.02,North,0,0.0,0.0,1,0.00,,,0.00,WUHU216HW,2013-10-12 05:34:00,
2013-10-12 01:35:00,40.7,-11.6,30.02,North,0,0.0,0.0,1,0.00,,,0.00,WUHU216HW,2013-10-12 05:35:00,
2013-10-12 01:37:00,40.7,-11.6,30.02,North,0,0.0,0.0,1,0.00,,,0.00,WUHU216HW,2013-10-12 05:37:00,
2013-10-12 01:39:00,40.7,-11.6,30.02,North,0,0.0,0.0,1,0.00,,,0.00,WUHU216HW,2013-10-12 05:39:00,
2013-10-12 01:40:00,40.7,-11.6,30.02,North,0,0.0,0.0,1,0.00,,,0.00,WUHU216HW,2013-10-12 05:40:00,
2013-10-12 01:42:00,40.7,-11.6,30.02,North,0,0.0,0.0,1,0.00,,,0.00,WUHU216HW,2013-10-12 05:42:00,
2013-10-12 01:43:00,40.7,-11.6,30.02,North,0,0.0,0.0,1,0.00,,,0.00,WUHU216HW,2013-10-12 05:43:00,
2013-10-12 01:44:00,40.7,-11.6,30.02,North,0,0.0,0.0,1,0.00,,,0.00,WUHU216HW,2013-10-12 05:44:00,
2013-10-12 01:45:00,40.7,-11.6,30.02,North,0,0.0,0.0,1,0.00,,,0.00,WUHU216HW,2013-10-12 05:45:00,
2013-10-12 01:47:00,40.5,-11.8,30.02,North,0,0.0,0.0,1,0.00,,,0.00,WUHU216HW,2013-10-12 05:47:00,
2013-10-12 01:48:00,40.5,-11.8,30.02,North,0,0.0,0.0,1,0.00,,,0.00,WUHU216HW,2013-10-12 05:48:00,
2013-10-12 01:49:00,40.3,-11.9,30.02,North,0,0.0,0.0,1,0.00,,,0.00,WUHU216HW,2013-10-12 05:49:00,
2013-10-12 01:50:00,40.3,-11.9,30.02,North,0,0.0,0.0,1,0.00,,,0.00,WUHU216HW,2013-10-12 05:50:00,
2013-10-12 01:52:00,40.3,-11.9,30.02,North,0,0.0,0.0,1,0.00,,,0.00,WUHU216HW,2013-10-12 05:52:00,
2013-10-12 01:53:00,40.1,-12.1,30.02,North,0,0.0,0.0,1,0.00,,,0.00,WUHU216HW,2013-10-12 05:53:00,
2013-10-12 01:54:00,40.1,-12.1,30.02,North,0,0.0,0.0,1,0.00,,,0.00,WUHU216HW,2013-10-12 05:54:00,
2013-10-12 01:55:00,40.1,-12.1,30.02,North,0,0.0,0.0,1,0.00,,,0.00,WUHU216HW,2013-10-12 05:55:00,
2013-10-12 01:57:00,40.1,-12.1,30.02,North,0,0.0,0.0,1,0.00,,,0.00,WUHU216HW,2013-10-12 05:57:00,
2013-10-12 01:58:00,40.1,-12.1,30.03,North,0,0.0,0.0,1,0.00,,,0.00,WUHU216HW,2013-10-12 05:58:00,
2013-10-12 01:59:00,40.3,-11.9,30.03,North,0,0.0,0.0,1,0.00,,,0.00,WUHU216HW,2013-10-12 05:59:00,
2013-10-12 02:00:00,40.3,-11.9,30.02,North,0,0.0,0.0,1,0.00,,,0.00,WUHU216HW,2013-10-12 06:00:00,
2013-10-12 02:02:00,40.3,-11.9,30.03,North,0,0.0,0.0,1,0.00,,,0.00,WUHU216HW,2013-10-12 06:02:00,
2013-10-12 02:03:00,40.1,-12.1,30.02,North,0,0.0,0.0,1,0.00,,,0.00,WUHU216HW,2013-10-12 06:03:00,
2013-10-12 02:04:00,40.1,-12.1,30.02,North,0,0.0,0.0,1,0.00,,,0.00,WUHU216HW,2013-10-12 06:04:00,
2013-10-12 02:05:00,40.0,-12.2,30.02,North,0,0.0,0.0,1,0.00,,,0.00,WUHU216HW,2013-10-12 06:05:00,
2013-10-12 02:07:00,40.0,-12.2,30.02,North,0,0.0,0.0,1,0.00,,,0.00,WUHU216HW,2013-10-12 06:07:00,
2013-10-12 02:08:00,40.0,-12.2,30.02,North,0,0.0,0.0,1,0.00,,,0.00,WUHU216HW,2013-10-12 06:08:00,
2013-10-12 02:09:00,40.0,-12.2,30.02,North,0,0.0,0.0,1,0.00,,,0.00,WUHU216HW,2013-10-12 06:09:00,
2013-10-12 02:10:00,40.0,-12.2,30.02,North,0,0.0,0.0,1,0.00,,,0.00,WUHU216HW,2013-10-12 06:10:00,
2013-10-12 02:12:00,40.0,-12.2,30.02,North,0,0.0,0.0,1,0.00,,,0.00,WUHU216HW,2013-10-12 06:12:00,
2013-10-12 02:13:00,40.0,-12.2,30.02,North,0,0.0,0.0,1,0.00,,,0.00,WUHU216HW,2013-10-12 06:13:00,
2013-10-12 02:14:00,40.0,-12.2,30.02,North,0,0.0,0.0,1,0.00,,,0.00,WUHU216HW,2013-10-12 06:14:00,
2013-10-12 02:15:00,40.0,-12.2,30.02,North,0,0.0,0.0,1,0.00,,,0.00,WUHU216HW,2013-10-12 06:15:00,
2013-10-12 02:17:00,40.0,-12.2,30.02,North,0,0.0,0.0,1,0.00,,,0.00,WUHU216HW,2013-10-12 06:17:00,
2013-10-12 02:18:00,40.0,-12.2,30.02,North,0,0.0,0.0,1,0.00,,,0.00,WUHU216HW,2013-10-12 06:18:00,
2013-10-12 02:19:00,40.0,-12.2,30.02,North,0,0.0,0.0,1,0.00,,,0.00,WUHU216HW,2013-10-12 06:19:00,
2013-10-12 02:20:00,40.0,-12.2,30.02,North,0,0.0,0.0,1,0.00,,,0.00,WUHU216HW,2013-10-12 06:20:00,
2013-10-12 02:22:00,40.0,-12.2,30.02,North,0,0.0,0.0,1,0.00,,,0.00,WUHU216HW,2013-10-12 06:22:00,
2013-10-12 02:23:00,40.0,-12.2,30.02,North,0,0.0,0.0,1,0.00,,,0.00,WUHU216HW,2013-10-12 06:23:00,
2013-10-12 02:24:00,40.0,-12.2,30.02,North,0,0.0,0.0,1,0.00,,,0.00,WUHU216HW,2013-10-12 06:24:00,
2013-10-12 02:25:00,40.0,-12.2,30.02,North,0,0.0,0.0,1,0.00,,,0.00,WUHU216HW,2013-10-12 06:25:00,
2013-10-12 02:27:00,39.8,-12.3,30.02,North,0,0.0,0.0,1,0.00,,,0.00,WUHU216HW,2013-10-12 06:27:00,
2013-10-12 02:28:00,39.8,-12.3,30.02,North,0,0.0,0.0,1,0.00,,,0.00,WUHU216HW,2013-10-12 06:28:00,
2013-10-12 02:29:00,39.8,-12.3,30.02,North,0,0.0,0.0,1,0.00,,,0.00,WUHU216HW,2013-10-12 06:29:00,
2013-10-12 02:30:00,39.8,-12.3,30.02,North,0,0.0,0.0,1,0.00,,,0.00,WUHU216HW,2013-10-12 06:30:00,
2013-10-12 02:32:00,39.8,-12.3,30.02,North,0,0.0,0.0,1,0.00,,,0.00,WUHU216HW,2013-10-12 06:32:00,
2013-10-12 02:33:00,39.8,-12.3,30.02,North,0,0.0,0.0,1,0.00,,,0.00,WUHU216HW,2013-10-12 06:33:00,
2013-10-12 02:34:00,39.8,-12.3,30.02,North,0,0.0,0.0,1,0.00,,,0.00,WUHU216HW,2013-10-12 06:34:00,
2013-10-12 02:35:00,39.8,-12.3,30.02,North,0,0.0,0.0,1,0.00,,,0.00,WUHU216HW,2013-10-12 06:35:00,
2013-10-12 02:37:00,39.6,-12.5,30.02,North,0,0.0,0.0,1,0.00,,,0.00,WUHU216HW,2013-10-12 06:37:00,
2013-10-12 02:38:00,39.8,-12.3,30.02,North,0,0.0,0.0,1,0.00,,,0.00,WUHU216HW,2013-10-12 06:38:00,
2013-10-12 02:39:00,39.6,-12.5,30.02,North,0,0.0,0.0,1,0.00,,,0.00,WUHU216HW,2013-10-12 06:39:00,
2013-10-12 02:40:00,39.6,-12.5,30.02,North,0,0.0,0.0,1,0.00,,,0.00,WUHU216HW,2013-10-12 06:40:00,
2013-10-12 02:42:00,39.6,-12.5,30.02,North,0,0.0,0.0,1,0.00,,,0.00,WUHU216HW,2013-10-12 06:42:00,
2013-10-12 02:43:00,39.6,-12.5,30.02,North,0,0.0,0.0,1,0.00,,,0.00,WUHU216HW,2013-10-12 06:43:00,
2013-10-12 02:44:00,39.6,-12.5,30.02,North,0,0.0,0.0,1,0.00,,,0.00,WUHU216HW,2013-10-12 06:44:00,
2013-10-12 02:45:00,39.6,-12.5,30.02,North,0,0.0,0.0,1,0.00,,,0.00,WUHU216HW,2013-10-12 06:45:00,
2013-10-12 02:47:00,39.8,-12.3,30.02,North,0,0.0,0.0,1,0.00,,,0.00,WUHU216HW,2013-10-12 06:47:00,
2013-10-12 02:48:00,39.8,-12.3,30.02,North,0,0.0,0.0,1,0.00,,,0.00,WUHU216HW,2013-10-12 06:48:00,
2013-10-12 02:49:00,40.0,-12.2,30.02,North,0,0.0,0.0,1,0.00,,,0.00,WUHU216HW,2013-10-12 06:49:00,
2013-10-12 02:50:00,39.8,-12.3,30.02,North,0,0.0,0.0,1,0.00,,,0.00,WUHU216HW,2013-10-12 06:50:00,
2013-10-12 02:52:00,39.8,-12.3,30.02,North,0,0.0,0.0,1,0.00,,,0.00,WUHU216HW,2013-10-12 06:52:00,
2013-10-12 02:53:00,39.8,-12.3,30.02,North,0,0.0,0.0,1,0.00,,,0.00,WUHU216HW,2013-10-12 06:53:00,
2013-10-12 02:54:00,39.8,-12.3,30.02,North,0,0.0,0.0,1,0.00,,,0.00,WUHU216HW,2013-10-12 06:54:00,
2013-10-12 02:55:00,39.8,-12.3,30.02,North,0,0.0,0.0,1,0.00,,,0.00,WUHU216HW,2013-10-12 06:55:00,
2013-10-12 02:57:00,39.8,-12.3,30.02,North,0,0.0,0.0,1,0.00,,,0.00,WUHU216HW,2013-10-12 06:57:00,
2013-10-12 02:58:00,39.8,-12.3,30.02,North,0,0.0,0.0,1,0.00,,,0.00,WUHU216HW,2013-10-12 06:58:00,
2013-10-12 02:59:00,39.8,-12.3,30.02,North,0,0.0,0.0,1,0.00,,,0.00,WUHU216HW,2013-10-12 06:59:00,
2013-10-12 03:00:00,39.6,-12.5,30.01,North,0,0.0,0.0,1,0.00,,,0.00,WUHU216HW,2013-10-12 07:00:00,
2013-10-12 03:02:00,39.6,-12.5,30.02,North,0,0.0,0.0,1,0.00,,,0.00,WUHU216HW,2013-10-12 07:02:00,
2013-10-12 03:03:00,39.6,-12.5,30.01,North,0,0.0,0.0,1,0.00,,,0.00,WUHU216HW,2013-10-12 07:03:00,
2013-10-12 03:04:00,39.4,-12.6,30.01,North,0,0.0,0.0,1,0.00,,,0.00,WUHU216HW,2013-10-12 07:04:00,
2013-10-12 03:05:00,39.6,-12.5,30.02,North,0,0.0,0.0,1,0.00,,,0.00,WUHU216HW,2013-10-12 07:05:00,
2013-10-12 03:07:00,39.6,-12.5,30.01,North,0,0.0,0.0,1,0.00,,,0.00,WUHU216HW,2013-10-12 07:07:00,
2013-10-12 03:08:00,39.8,-12.3,30.01,North,0,0.0,0.0,1,0.00,,,0.00,WUHU216HW,2013-10-12 07:08:00,
2013-10-12 03:09:00,39.8,-12.3,30.02,North,0,0.0,0.0,1,0.00,,,0.00,WUHU216HW,2013-10-12 07:09:00,
2013-10-12 03:10:00,39.8,-12.3,30.01,North,0,0.0,0.0,1,0.00,,,0.00,WUHU216HW,2013-10-12 07:10:00,
2013-10-12 03:12:00,39.8,-12.3,30.01,North,0,0.0,0.0,1,0.00,,,0.00,WUHU216HW,2013-10-12 07:12:00,
2013-10-12 03:13:00,39.8,-12.3,30.01,North,0,0.0,0.0,1,0.00,,,0.00,WUHU216HW,2013-10-12 07:13:00,
2013-10-12 03:14:00,40.0,-12.2,30.01,North,0,0.0,0.0,1,0.00,,,0.00,WUHU216HW,2013-10-12 07:14:00,
2013-10-12 03:15:00,40.0,-12.2,30.01,North,0,0.0,0.0,1,0.00,,,0.00,WUHU216HW,2013-10-12 07:15:00,
2013-10-12 03:17:00,40.0,-12.2,30.01,North,0,0.0,0.0,1,0.00,,,0.00,WUHU216HW,2013-10-12 07:17:00,
2013-10-12 03:18:00,40.0,-12.2,30.02,North,0,0.0,0.0,1,0.00,,,0.00,WUHU216HW,2013-10-12 07:18:00,
2013-10-12 03:19:00,40.0,-12.2,30.01,North,0,0.0,0.0,1,0.00,,,0.00,WUHU216HW,2013-10-12 07:19:00,
2013-10-12 03:20:00,40.0,-12.2,30.01,North,0,0.0,0.0,1,0.00,,,0.00,WUHU216HW,2013-10-12 07:20:00,
2013-10-12 03:22:00,40.0,-12.2,30.01,North,0,0.0,0.0,1,0.00,,,0.00,WUHU216HW,2013-10-12 07:22:00,
2013-10-12 03:23:00,40.0,-12.2,30.01,North,0,0.0,0.0,1,0.00,,,0.00,WUHU216HW,2013-10-12 07:23:00,
2013-10-12 03:24:00,40.0,-12.2,30.01,North,0,0.0,0.0,1,0.00,,,0.00,WUHU216HW,2013-10-12 07:24:00,
2013-10-12 03:25:00,40.0,-12.2,30.01,North,0,0.0,0.0,1,0.00,,,0.00,WUHU216HW,2013-10-12 07:25:00,
2013-10-12 03:27:00,40.0,-12.2,30.01,North,0,0.0,0.0,1,0.00,,,0.00,WUHU216HW,2013-10-12 07:27:00,
2013-10-12 03:28:00,40.0,-12.2,30.02,North,0,0.0,0.0,1,0.00,,,0.00,WUHU216HW,2013-10-12 07:28:00,
2013-10-12 03:29:00,40.0,-12.2,30.02,North,0,0.0,0.0,1,0.00,,,0.00,WUHU216HW,2013-10-12 07:29:00,
2013-10-12 03:30:00,40.0,-12.2,30.02,North,0,0.0,0.0,1,0.00,,,0.00,WUHU216HW,2013-10-12 07:30:00,
2013-10-12 03:32:00,40.0,-12.2,30.02,North,0,0.0,0.0,1,0.00,,,0.00,WUHU216HW,2013-10-12 07:32:00,
2013-10-12 03:33:00,40.0,-12.2,30.02,North,0,0.0,0.0,1,0.00,,,0.00,WUHU216HW,2013-10-12 07:33:00,
2013-10-12 03:34:00,40.0,-12.2,30.02,North,0,0.0,0.0,1,0.00,,,0.00,WUHU216HW,2013-10-12 07:34:00,
2013-10-12 03:35:00,40.0,-12.2,30.02,North,0,0.0,0.0,1,0.00,,,0.00,WUHU216HW,2013-10-12 07:35:00,
2013-10-12 03:37:00,40.0,-12.2,30.02,North,0,0.0,0.0,1,0.00,,,0.00,WUHU216HW,2013-10-12 07:37:00,
2013-10-12 03:38:00,40.0,-12.2,30.02,North,0,0.0,0.0,1,0.00,,,0.00,WUHU216HW,2013-10-12 07:38:00,
2013-10-12 03:39:00,40.0,-12.2,30.02,North,0,0.0,0.0,1,0.00,,,0.00,WUHU216HW,2013-10-12 07:39:00,
2013-10-12 03:40:00,40.0,-12.2,30.02,North,0,0.0,0.0,1,0.00,,,0.00,WUHU216HW,2013-10-12 07:40:00,
2013-10-12 03:42:00,40.0,-12.2,30.02,North,0,0.0,0.0,1,0.00,,,0.00,WUHU216HW,2013-10-12 07:42:00,
2013-10-12 03:43:00,40.0,-12.2,30.02,North,0,0.0,0.0,1,0.00,,,0.00,WUHU216HW,2013-10-12 07:43:00,
2013-10-12 03:44:00,40.0,-12.2,30.02,North,0,0.0,0.0,1,0.00,,,0.00,WUHU216HW,2013-10-12 07:44:00,
2013-10-12 03:45:00,40.0,-12.2,30.02,North,0,0.0,0.0,1,0.00,,,0.00,WUHU216HW,2013-10-12 07:45:00,
2013-10-12 03:47:00,39.8,-12.3,30.02,North,0,0.0,0.0,1,0.00,,,0.00,WUHU216HW,2013-10-12 07:47:00,
2013-10-12 03:48:00,39.8,-12.3,30.02,North,0,0.0,0.0,1,0.00,,,0.00,WUHU216HW,2013-10-12 07:48:00,
2013-10-12 03:49:00,39.8,-12.3,30.02,North,0,0.0,0.0,1,0.00,,,0.00,WUHU216HW,2013-10-12 07:49:00,
2013-10-12 03:50:00,39.8,-12.3,30.02,North,0,0.0,0.0,1,0.00,,,0.00,WUHU216HW,2013-10-12 07:50:00,
2013-10-12 03:52:00,39.6,-12.5,30.02,North,0,0.0,0.0,1,0.00,,,0.00,WUHU216HW,2013-10-12 07:52:00,
2013-10-12 03:53:00,39.6,-12.5,30.02,North,0,0.0,0.0,1,0.00,,,0.00,WUHU216HW,2013-10-12 07:53:00,
2013-10-12 03:54:00,39.6,-12.5,30.02,North,0,0.0,0.0,1,0.00,,,0.00,WUHU216HW,2013-10-12 07:54:00,
2013-10-12 03:55:00,39.4,-12.6,30.02,North,0,0.0,0.0,1,0.00,,,0.00,WUHU216HW,2013-10-12 07:55:00,
2013-10-12 03:57:00,39.4,-12.6,30.02,North,0,0.0,0.0,1,0.00,,,0.00,WUHU216HW,2013-10-12 07:57:00,
2013-10-12 03:58:00,39.4,-12.6,30.02,North,0,0.0,0.0,1,0.00,,,0.00,WUHU216HW,2013-10-12 07:58:00,
2013-10-12 03:59:00,39.4,-12.6,30.02,North,0,0.0,0.0,1,0.00,,,0.00,WUHU216HW,2013-10-12 07:59:00,
2013-10-12 04:00:00,39.2,-12.8,30.02,North,0,0.0,0.0,1,0.00,,,0.00,WUHU216HW,2013-10-12 08:00:00,
2013-10-12 04:02:00,39.4,-12.6,30.03,North,0,0.0,0.0,1,0.00,,,0.00,WUHU216HW,2013-10-12 08:02:00,
2013-10-12 04:03:00,39.4,-12.6,30.03,North,0,0.0,0.0,1,0.00,,,0.00,WUHU216HW,2013-10-12 08:03:00,
2013-10-12 04:04:00,39.4,-12.6,30.03,North,0,0.0,0.0,1,0.00,,,0.00,WUHU216HW,2013-10-12 08:04:00,
2013-10-12 04:05:00,39.2,-12.8,30.03,North,0,0.0,0.0,1,0.00,,,0.00,WUHU216HW,2013-10-12 08:05:00,
2013-10-12 04:07:00,39.4,-12.6,30.03,North,0,0.0,0.0,1,0.00,,,0.00,WUHU216HW,2013-10-12 08:07:00,
2013-10-12 04:08:00,39.4,-12.6,30.03,North,0,0.0,0.0,1,0.00,,,0.00,WUHU216HW,2013-10-12 08:08:00,
2013-10-12 04:09:00,39.4,-12.6,30.03,North,0,0.0,0.0,1,0.00,,,0.00,WUHU216HW,2013-10-12 08:09:00,
2013-10-12 04:10:00,39.4,-12.6,30.03,North,0,0.0,0.0,1,0.00,,,0.00,WUHU216HW,2013-10-12 08:10:00,
2013-10-12 04:12:00,39.4,-12.6,30.03,North,0,0.0,0.0,1,0.00,,,0.00,WUHU216HW,2013-10-12 08:12:00,
2013-10-12 04:13:00,39.2,-12.8,30.03,North,0,0.0,0.0,1,0.00,,,0.00,WUHU216HW,2013-10-12 08:13:00,
2013-10-12 04:14:00,39.2,-12.8,30.03,North,0,0.0,0.0,1,0.00,,,0.00,WUHU216HW,2013-10-12 08:14:00,
2013-10-12 04:15:00,39.2,-12.8,30.03,North,0,0.0,0.0,1,0.00,,,0.00,WUHU216HW,2013-10-12 08:15:00,
2013-10-12 04:17:00,39.2,-12.8,30.03,North,0,0.0,0.0,1,0.00,,,0.00,WUHU216HW,2013-10-12 08:17:00,
2013-10-12 04:18:00,39.1,-13.0,30.03,North,0,0.0,0.0,1,0.00,,,0.00,WUHU216HW,2013-10-12 08:18:00,
2013-10-12 04:19:00,39.1,-13.0,30.03,North,0,0.0,0.0,1,0.00,,,0.00,WUHU216HW,2013-10-12 08:19:00,
2013-10-12 04:20:00,39.1,-13.0,30.03,North,0,0.0,0.0,1,0.00,,,0.00,WUHU216HW,2013-10-12 08:20:00,
2013-10-12 04:22:00,39.2,-12.8,30.03,North,0,0.0,0.0,1,0.00,,,0.00,WUHU216HW,2013-10-12 08:22:00,
2013-10-12 04:23:00,39.2,-12.8,30.03,North,0,0.0,0.0,1,0.00,,,0.00,WUHU216HW,2013-10-12 08:23:00,
2013-10-12 04:24:00,39.2,-12.8,30.03,North,0,0.0,0.0,1,0.00,,,0.00,WUHU216HW,2013-10-12 08:24:00,
2013-10-12 04:25:00,39.2,-12.8,30.03,North,0,0.0,0.0,1,0.00,,,0.00,WUHU216HW,2013-10-12 08:25:00,
2013-10-12 04:27:00,39.2,-12.8,30.03,North,0,0.0,0.0,1,0.00,,,0.00,WUHU216HW,2013-10-12 08:27:00,
2013-10-12 04:28:00,39.4,-12.6,30.03,North,0,0.0,0.0,1,0.00,,,0.00,WUHU216HW,2013-10-12 08:28:00,
2013-10-12 04:29:00,39.4,-12.6,30.03,North,0,0.0,0.0,1,0.00,,,0.00,WUHU216HW,2013-10-12 08:29:00,
2013-10-12 04:30:00,39.6,-12.5,30.03,North,0,0.0,0.0,1,0.00,,,0.00,WUHU216HW,2013-10-12 08:30:00,
2013-10-12 04:32:00,39.6,-12.5,30.03,North,0,0.0,0.0,1,0.00,,,0.00,WUHU216HW,2013-10-12 08:32:00,
2013-10-12 04:33:00,39.6,-12.5,30.03,North,0,0.0,0.0,1,0.00,,,0.00,WUHU216HW,2013-10-12 08:33:00,
2013-10-12 04:34:00,39.6,-12.5,30.03,North,0,0.0,0.0,1,0.00,,,0.00,WUHU216HW,2013-10-12 08:34:00,
2013-10-12 04:35:00,39.6,-12.5,30.03,North,0,0.0,0.0,1,0.00,,,0.00,WUHU216HW,2013-10-12 08:35:00,
2013-10-12 04:37:00,39.6,-12.5,30.03,North,0,0.0,0.0,1,0.00,,,0.00,WUHU216HW,2013-10-12 08:37:00,
2013-10-12 04:38:00,39.6,-12.5,30.03,North,0,0.0,0.0,1,0.00,,,0.00,WUHU216HW,2013-10-12 08:38:00,
2013-10-12 04:39:00,39.6,-12.5,30.03,North,0,0.0,0.0,1,0.00,,,0.00,WUHU216HW,2013-10-12 08:39:00,
2013-10-12 04:40:00,40.0,-12.2,30.03,North,0,0.0,0.0,1,0.00,,,0.00,WUHU216HW,2013-10-12 08:40:00,
2013-10-12 04:42:00,40.1,-12.1,30.03,North,0,0.0,0.0,1,0.00,,,0.00,WUHU216HW,2013-10-12 08:42:00,
2013-10-12 04:43:00,40.3,-11.9,30.03,North,0,0.0,0.0,1,0.00,,,0.00,WUHU216HW,2013-10-12 08:43:00,
2013-10-12 04:44:00,40.5,-11.8,30.03,North,0,0.0,0.0,1,0.00,,,0.00,WUHU216HW,2013-10-12 08:44:00,
2013-10-12 04:45:00,40.7,-11.6,30.03,North,0,0.0,0.0,1,0.00,,,0.00,WUHU216HW,2013-10-12 08:45:00,
2013-10-12 04:47:00,40.7,-11.6,30.03,North,0,0.0,0.0,1,0.00,,,0.00,WUHU216HW,2013-10-12 08:47:00,
2013-10-12 04:48:00,40.7,-11.6,30.03,North,0,0.0,0.0,1,0.00,,,0.00,WUHU216HW,2013-10-12 08:48:00,
2013-10-12 04:49:00,40.7,-11.6,30.03,North,0,0.0,0.0,1,0.00,,,0.00,WUHU216HW,2013-10-12 08:49:00,
2013-10-12 04:50:00,40.9,-11.5,30.03,North,0,0.0,0.0,1,0.00,,,0.00,WUHU216HW,2013-10-12 08:50:00,
2013-10-12 04:52:00,40.9,-11.5,30.03,North,0,0.0,0.0,1,0.00,,,0.00,WUHU216HW,2013-10-12 08:52:00,
2013-10-12 04:53:00,41.0,-11.3,30.03,North,0,0.0,0.0,1,0.00,,,0.00,WUHU216HW,2013-10-12 08:53:00,
2013-10-12 04:54:00,41.0,-11.3,30.03,North,0,0.0,0.0,1,0.00,,,0.00,WUHU216HW,2013-10-12 08:54:00,
2013-10-12 04:55:00,40.9,-11.5,30.03,North,0,0.0,0.0,1,0.00,,,0.00,WUHU216HW,2013-10-12 08:55:00,
2013-10-12 04:57:00,40.9,-11.5,30.03,North,0,0.0,0.0,1,0.00,,,0.00,WUHU216HW,2013-10-12 08:57:00,
2013-10-12 04:58:00,40.9,-11.5,30.03,North,0,0.0,0.0,1,0.00,,,0.00,WUHU216HW,2013-10-12 08:58:00,
2013-10-12 04:59:00,40.7,-11.6,30.03,North,0,0.0,0.0,1,0.00,,,0.00,WUHU216HW,2013-10-12 08:59:00,
2013-10-12 05:01:00,40.7,-11.6,30.03,North,0,0.0,0.0,1,0.00,,,0.00,WUHU216HW,2013-10-12 09:01:00,
2013-10-12 05:02:00,40.7,-11.6,30.03,North,0,0.0,0.0,1,0.00,,,0.00,WUHU216HW,2013-10-12 09:02:00,
2013-10-12 05:03:00,40.7,-11.6,30.03,North,0,0.0,0.0,1,0.00,,,0.00,WUHU216HW,2013-10-12 09:03:00,
2013-10-12 05:04:00,40.7,-11.6,30.03,North,0,0.0,0.0,1,0.00,,,0.00,WUHU216HW,2013-10-12 09:04:00,
2013-10-12 05:05:00,40.7,-11.6,30.03,North,0,0.0,0.0,1,0.00,,,0.00,WUHU216HW,2013-10-12 09:05:00,
2013-10-12 05:07:00,40.7,-11.6,30.03,North,0,0.0,0.0,1,0.00,,,0.00,WUHU216HW,2013-10-12 09:07:00,
2013-10-12 05:08:00,40.7,-11.6,30.03,North,0,0.0,0.0,1,0.00,,,0.00,WUHU216HW,2013-10-12 09:08:00,
2013-10-12 05:09:00,40.5,-11.8,30.03,North,0,0.0,0.0,1,0.00,,,0.00,WUHU216HW,2013-10-12 09:09:00,
2013-10-12 05:10:00,40.5,-11.8,30.03,North,0,0.0,0.0,1,0.00,,,0.00,WUHU216HW,2013-10-12 09:10:00,
2013-10-12 05:12:00,40.5,-11.8,30.03,North,0,0.0,0.0,1,0.00,,,0.00,WUHU216HW,2013-10-12 09:12:00,
2013-10-12 05:13:00,40.5,-11.8,30.04,North,0,0.0,0.0,1,0.00,,,0.00,WUHU216HW,2013-10-12 09:13:00,
2013-10-12 05:14:00,40.5,-11.8,30.04,North,0,0.0,0.0,1,0.00,,,0.00,WUHU216HW,2013-10-12 09:14:00,
2013-10-12 05:15:00,40.5,-11.8,30.03,North,0,0.0,0.0,1,0.00,,,0.00,WUHU216HW,2013-10-12 09:15:00,
2013-10-12 05:17:00,40.5,-11.8,30.04,North,0,0.0,0.0,1,0.00,,,0.00,WUHU216HW,2013-10-12 09:17:00,
2013-10-12 05:18:00,40.5,-11.8,30.04,North,0,0.0,0.0,1,0.00,,,0.00,WUHU216HW,2013-10-12 09:18:00,
2013-10-12 05:19:00,40.5,-11.8,30.04,North,0,0.0,0.0,1,0.00,,,0.00,WUHU216HW,2013-10-12 09:19:00,
2013-10-12 05:21:00,40.5,-11.8,30.04,North,0,0.0,0.0,1,0.00,,,0.00,WUHU216HW,2013-10-12 09:21:00,
2013-10-12 05:22:00,40.5,-11.8,30.04,North,0,0.0,0.0,1,0.00,,,0.00,WUHU216HW,2013-10-12 09:22:00,
2013-10-12 05:23:00,40.5,-11.8,30.04,North,0,0.0,0.0,1,0.00,,,0.00,WUHU216HW,2013-10-12 09:23:00,
2013-10-12 05:24:00,40.3,-11.9,30.04,North,0,0.0,0.0,1,0.00,,,0.00,WUHU216HW,2013-10-12 09:24:00,
2013-10-12 05:26:00,40.3,-11.9,30.04,North,0,0.0,0.0,1,0.00,,,0.00,WUHU216HW,2013-10-12 09:26:00,
2013-10-12 05:27:00,40.3,-11.9,30.04,North,0,0.0,0.0,1,0.00,,,0.00,WUHU216HW,2013-10-12 09:27:00,
2013-10-12 05:28:00,40.3,-11.9,30.04,North,0,0.0,0.0,1,0.00,,,0.00,WUHU216HW,2013-10-12 09:28:00,
2013-10-12 05:29:00,40.3,-11.9,30.04,North,0,0.0,0.0,1,0.00,,,0.00,WUHU216HW,2013-10-12 09:29:00,
2013-10-12 05:30:00,40.3,-11.9,30.04,North,0,0.0,0.0,1,0.00,,,0.00,WUHU216HW,2013-10-12 09:30:00,
2013-10-12 05:32:00,40.3,-11.9,30.04,North,0,0.0,0.0,1,0.00,,,0.00,WUHU216HW,2013-10-12 09:32:00,
2013-10-12 05:33:00,40.3,-11.9,30.04,North,0,0.0,0.0,1,0.00,,,0.00,WUHU216HW,2013-10-12 09:33:00,
2013-10-12 05:34:00,40.3,-11.9,30.04,North,0,0.0,0.0,1,0.00,,,0.00,WUHU216HW,2013-10-12 09:34:00,
2013-10-12 05:36:00,40.3,-11.9,30.04,North,0,0.0,0.0,1,0.00,,,0.00,WUHU216HW,2013-10-12 09:36:00,
2013-10-12 05:37:00,40.5,-11.8,30.04,North,0,0.0,0.0,1,0.00,,,0.00,WUHU216HW,2013-10-12 09:37:00,
2013-10-12 05:38:00,40.5,-11.8,30.04,North,0,0.0,0.0,1,0.00,,,0.00,WUHU216HW,2013-10-12 09:38:00,
2013-10-12 05:39:00,40.5,-11.8,30.04,North,0,0.0,0.0,1,0.00,,,0.00,WUHU216HW,2013-10-12 09:39:00,
2013-10-12 05:41:00,40.7,-11.6,30.04,North,0,0.0,0.0,1,0.00,,,0.00,WUHU216HW,2013-10-12 09:41:00,
2013-10-12 05:42:00,40.7,-11.6,30.04,North,0,0.0,0.0,1,0.00,,,0.00,WUHU216HW,2013-10-12 09:42:00,
2013-10-12 05:43:00,40.7,-11.6,30.04,North,0,0.0,0.0,1,0.00,,,0.00,WUHU216HW,2013-10-12 09:43:00,
2013-10-12 05:44:00,40.9,-11.5,30.04,North,0,0.0,0.0,1,0.00,,,0.00,WUHU216HW,2013-10-12 09:44:00,
2013-10-12 05:46:00,40.9,-11.5,30.04,North,0,0.0,0.0,1,0.00,,,0.00,WUHU216HW,2013-10-12 09:46:00,
2013-10-12 05:47:00,40.9,-11.5,30.05,North,0,0.0,0.0,1,0.00,,,0.00,WUHU216HW,2013-10-12 09:47:00,
2013-10-12 05:48:00,40.9,-11.5,30.05,North,0,0.0,0.0,1,0.00,,,0.00,WUHU216HW,2013-10-12 09:48:00,
2013-10-12 05:49:00,40.9,-11.5,30.05,North,0,0.0,0.0,1,0.00,,,0.00,WUHU216HW,2013-10-12 09:49:00,
2013-10-12 05:51:00,40.9,-11.5,30.05,North,0,0.0,0.0,1,0.00,,,0.00,WUHU216HW,2013-10-12 09:51:00,
2013-10-12 05:52:00,41.0,-11.3,30.05,North,0,0.0,0.0,1,0.00,,,0.00,WUHU216HW,2013-10-12 09:52:00,
2013-10-12 05:53:00,41.0,-11.3,30.05,North,0,0.0,0.0,1,0.00,,,0.00,WUHU216HW,2013-10-12 09:53:00,
2013-10-12 05:54:00,41.0,-11.3,30.05,North,0,0.0,0.0,1,0.00,,,0.00,WUHU216HW,2013-10-12 09:54:00,
2013-10-12 05:56:00,41.2,-11.2,30.05,North,0,0.0,0.0,1,0.00,,,0.00,WUHU216HW,2013-10-12 09:56:00,
2013-10-12 05:57:00,41.4,-11.1,30.05,North,0,0.0,0.0,1,0.00,,,0.00,WUHU216HW,2013-10-12 09:57:00,
2013-10-12 05:58:00,41.4,-11.1,30.05,North,0,0.0,0.0,1,0.00,,,0.00,WUHU216HW,2013-10-12 09:58:00,
2013-10-12 06:01:00,41.6,-11.0,30.05,North,0,0.0,0.0,1,0.00,,,0.00,WUHU216HW,2013-10-12 10:01:00,
2013-10-12 06:02:00,41.8,-10.8,30.05,North,0,0.0,0.0,1,0.00,,,0.00,WUHU216HW,2013-10-12 10:02:00,
2013-10-12 06:03:00,41.8,-10.8,30.05,North,0,0.0,0.0,1,0.00,,,0.00,WUHU216HW,2013-10-12 10:03:00,
2013-10-12 06:04:00,41.9,-10.7,30.05,North,0,0.0,0.0,1,0.00,,,0.00,WUHU216HW,2013-10-12 10:04:00,
2013-10-12 06:05:00,41.9,-10.7,30.05,North,0,0.0,0.0,1,0.00,,,0.00,WUHU216HW,2013-10-12 10:05:00,
2013-10-12 06:06:00,41.9,-10.7,30.05,North,0,0.0,0.0,1,0.00,,,0.00,WUHU216HW,2013-10-12 10:06:00,
2013-10-12 06:07:00,41.9,-10.7,30.05,North,0,0.0,0.0,1,0.00,,,0.00,WUHU216HW,2013-10-12 10:07:00,
2013-10-12 06:08:00,41.8,-10.8,30.05,North,0,0.0,0.0,1,0.00,,,0.00,WUHU216HW,2013-10-12 10:08:00,
2013-10-12 06:09:00,41.8,-10.8,30.05,North,0,0.0,0.0,1,0.00,,,0.00,WUHU216HW,2013-10-12 10:09:00,
2013-10-12 06:10:00,41.8,-10.8,30.05,North,0,0.0,0.0,1,0.00,,,0.00,WUHU216HW,2013-10-12 10:10:00,
2013-10-12 06:11:00,41.8,-10.8,30.05,North,0,0.0,0.0,1,0.00,,,0.00,WUHU216HW,2013-10-12 10:11:00,
2013-10-12 06:12:00,41.8,-10.8,30.05,North,0,0.0,0.0,1,0.00,,,0.00,WUHU216HW,2013-10-12 10:12:00,
2013-10-12 06:13:00,41.8,-10.8,30.06,North,0,0.0,0.0,1,0.00,,,0.00,WUHU216HW,2013-10-12 10:13:00,
2013-10-12 06:14:00,41.6,-11.0,30.06,North,0,0.0,0.0,1,0.00,,,0.00,WUHU216HW,2013-10-12 10:14:00,
2013-10-12 06:15:00,41.6,-11.0,30.06,North,0,0.0,0.0,1,0.00,,,0.00,WUHU216HW,2013-10-12 10:15:00,
2013-10-12 06:16:00,41.6,-11.0,30.06,North,0,0.0,0.0,1,0.00,,,0.00,WUHU216HW,2013-10-12 10:16:00,
2013-10-12 06:17:00,41.4,-11.1,30.06,North,0,0.0,0.0,1,0.00,,,0.00,WUHU216HW,2013-10-12 10:17:00,
2013-10-12 06:18:00,41.4,-11.1,30.06,North,0,0.0,0.0,1,0.00,,,0.00,WUHU216HW,2013-10-12 10:18:00,
2013-10-12 06:19:00,41.2,-11.2,30.06,North,0,0.0,0.0,1,0.00,,,0.00,WUHU216HW,2013-10-12 10:19:00,
2013-10-12 06:20:00,41.2,-11.2,30.06,North,0,0.0,0.0,1,0.00,,,0.00,WUHU216HW,2013-10-12 10:20:00,
2013-10-12 06:21:00,41.0,-11.3,30.06,North,0,0.0,0.0,1,0.00,,,0.00,WUHU216HW,2013-10-12 10:21:00,
2013-10-12 06:22:00,41.0,-11.3,30.06,North,0,0.0,0.0,1,0.00,,,0.00,WUHU216HW,2013-10-12 10:22:00,
2013-10-12 06:23:00,41.0,-11.3,30.06,North,0,0.0,0.0,1,0.00,,,0.00,WUHU216HW,2013-10-12 10:23:00,
2013-10-12 06:24:00,41.0,-11.3,30.06,North,0,0.0,0.0,1,0.00,,,0.00,WUHU216HW,2013-10-12 10:24:00,
2013-10-12 06:25:00,40.9,-11.5,30.06,North,0,0.0,0.0,1,0.00,,,0.00,WUHU216HW,2013-10-12 10:25:00,
2013-10-12 06:26:00,40.9,-11.5,30.06,North,0,0.0,0.0,1,0.00,,,0.00,WUHU216HW,2013-10-12 10:26:00,
2013-10-12 06:27:00,40.9,-11.5,30.06,North,0,0.0,0.0,1,0.00,,,0.00,WUHU216HW,2013-10-12 10:27:00,
2013-10-12 06:28:00,40.9,-11.5,30.06,North,0,0.0,0.0,1,0.00,,,0.00,WUHU216HW,2013-10-12 10:28:00,
2013-10-12 06:29:00,41.0,-11.3,30.06,North,0,0.0,0.0,1,0.00,,,0.00,WUHU216HW,2013-10-12 10:29:00,
2013-10-12 06:30:00,41.0,-11.3,30.06,North,0,0.0,0.0,1,0.00,,,0.00,WUHU216HW,2013-10-12 10:30:00,
2013-10-12 06:31:00,41.0,-11.3,30.06,North,0,0.0,0.0,1,0.00,,,0.00,WUHU216HW,2013-10-12 10:31:00,
2013-10-12 06:32:00,41.2,-11.2,30.06,North,0,0.0,0.0,1,0.00,,,0.00,WUHU216HW,2013-10-12 10:32:00,
2013-10-12 06:33:00,41.2,-11.2,30.06,North,0,0.0,0.0,1,0.00,,,0.00,WUHU216HW,2013-10-12 10:33:00,
2013-10-12 06:34:00,41.4,-11.1,30.06,North,0,0.0,0.0,1,0.00,,,0.00,WUHU216HW,2013-10-12 10:34:00,
2013-10-12 06:35:00,41.2,-11.2,30.06,North,0,0.0,0.0,1,0.00,,,0.00,WUHU216HW,2013-10-12 10:35:00,
2013-10-12 06:36:00,41.2,-11.2,30.06,North,0,0.0,0.0,1,0.00,,,0.00,WUHU216HW,2013-10-12 10:36:00,
2013-10-12 06:37:00,41.2,-11.2,30.06,North,0,0.0,0.0,1,0.00,,,0.00,WUHU216HW,2013-10-12 10:37:00,
2013-10-12 06:38:00,41.4,-11.1,30.06,North,0,0.0,0.0,1,0.00,,,0.00,WUHU216HW,2013-10-12 10:38:00,
2013-10-12 06:39:00,41.2,-11.2,30.06,North,0,0.0,0.0,1,0.00,,,0.00,WUHU216HW,2013-10-12 10:39:00,
2013-10-12 06:40:00,41.2,-11.2,30.06,North,0,0.0,0.0,1,0.00,,,0.00,WUHU216HW,2013-10-12 10:40:00,
2013-10-12 06:41:00,41.2,-11.2,30.06,North,0,0.0,0.0,1,0.00,,,0.00,WUHU216HW,2013-10-12 10:41:00,
2013-10-12 06:42:00,41.0,-11.3,30.06,North,0,0.0,0.0,1,0.00,,,0.00,WUHU216HW,2013-10-12 10:42:00,
2013-10-12 06:43:00,41.0,-11.3,30.07,North,0,0.0,0.0,1,0.00,,,0.00,WUHU216HW,2013-10-12 10:43:00,
2013-10-12 06:44:00,41.0,-11.3,30.07,North,0,0.0,0.0,1,0.00,,,0.00,WUHU216HW,2013-10-12 10:44:00,
2013-10-12 06:45:00,41.0,-11.3,30.07,North,0,0.0,0.0,1,0.00,,,0.00,WUHU216HW,2013-10-12 10:45:00,
2013-10-12 06:46:00,41.0,-11.3,30.07,North,0,0.0,0.0,1,0.00,,,0.00,WUHU216HW,2013-10-12 10:46:00,
2013-10-12 06:47:00,41.0,-11.3,30.07,North,0,0.0,0.0,1,0.00,,,0.00,WUHU216HW,2013-10-12 10:47:00,
2013-10-12 06:48:00,41.0,-11.3,30.07,North,0,0.0,0.0,1,0.00,,,0.00,WUHU216HW,2013-10-12 10:48:00,
2013-10-12 06:49:00,40.9,-11.5,30.07,North,0,0.0,0.0,1,0.00,,,0.00,WUHU216HW,2013-10-12 10:49:00,
2013-10-12 06:50:00,40.9,-11.5,30.07,North,0,0.0,0.0,1,0.00,,,0.00,WUHU216HW,2013-10-12 10:50:00,
2013-10-12 06:51:00,40.9,-11.5,30.07,North,0,0.0,0.0,1,0.00,,,0.00,WUHU216HW,2013-10-12 10:51:00,
2013-10-12 06:52:00,40.9,-11.5,30.07,North,0,0.0,0.0,1,0.00,,,0.00,WUHU216HW,2013-10-12 10:52:00,
2013-10-12 06:53:00,40.7,-11.6,30.07,North,0,0.0,0.0,1,0.00,,,0.00,WUHU216HW,2013-10-12 10:53:00,
2013-10-12 06:54:00,40.7,-11.6,30.07,North,0,0.0,0.0,1,0.00,,,0.00,WUHU216HW,2013-10-12 10:54:00,
2013-10-12 06:55:00,40.7,-11.6,30.07,North,0,0.0,0.0,1,0.00,,,0.00,WUHU216HW,2013-10-12 10:55:00,
2013-10-12 06:56:00,40.7,-11.6,30.07,North,0,0.0,0.0,1,0.00,,,0.00,WUHU216HW,2013-10-12 10:56:00,
2013-10-12 06:57:00,40.7,-11.6,30.07,North,0,0.0,0.0,1,0.00,,,0.00,WUHU216HW,2013-10-12 10:57:00,
2013-10-12 06:58:00,40.5,-11.8,30.07,North,0,0.0,0.0,1,0.00,,,0.00,WUHU216HW,2013-10-12 10:58:00,
2013-10-12 06:59:00,40.5,-11.8,30.07,North,0,0.0,0.0,1,0.00,,,0.00,WUHU216HW,2013-10-12 10:59:00,
2013-10-12 07:00:00,40.5,-11.8,30.07,North,0,0.0,0.0,1,0.00,,,0.00,WUHU216HW,2013-10-12 11:00:00,
2013-10-12 07:01:00,40.3,-11.9,30.07,North,0,0.0,0.0,1,0.00,,,0.00,WUHU216HW,2013-10-12 11:01:00,
2013-10-12 07:02:00,40.3,-11.9,30.07,North,0,0.0,0.0,1,0.00,,,0.00,WUHU216HW,2013-10-12 11:02:00,
2013-10-12 07:03:00,40.3,-11.9,30.07,North,0,0.0,0.0,1,0.00,,,0.00,WUHU216HW,2013-10-12 11:03:00,
2013-10-12 07:04:00,40.3,-11.9,30.07,North,0,0.0,0.0,1,0.00,,,0.00,WUHU216HW,2013-10-12 11:04:00,
2013-10-12 07:05:00,40.3,-11.9,30.07,North,0,0.0,0.0,1,0.00,,,0.00,WUHU216HW,2013-10-12 11:05:00,
2013-10-12 07:06:00,40.3,-11.9,30.07,North,0,0.0,0.0,1,0.00,,,0.00,WUHU216HW,2013-10-12 11:06:00,
2013-10-12 07:07:00,40.3,-11.9,30.07,North,0,0.0,0.0,1,0.00,,,0.00,WUHU216HW,2013-10-12 11:07:00,
2013-10-12 07:08:00,40.3,-11.9,30.07,North,0,0.0,0.0,1,0.00,,,0.00,WUHU216HW,2013-10-12 11:08:00,
2013-10-12 07:09:00,40.3,-11.9,30.07,North,0,0.0,0.0,1,0.00,,,0.00,WUHU216HW,2013-10-12 11:09:00,
2013-10-12 07:10:00,40.3,-11.9,30.07,North,0,0.0,0.0,1,0.00,,,0.00,WUHU216HW,2013-10-12 11:10:00,
2013-10-12 07:11:00,40.3,-11.9,30.07,North,0,0.0,0.0,1,0.00,,,0.00,WUHU216HW,2013-10-12 11:11:00,
2013-10-12 07:12:00,40.3,-11.9,30.08,North,0,0.0,0.0,1,0.00,,,0.00,WUHU216HW,2013-10-12 11:12:00,
2013-10-12 07:13:00,40.3,-11.9,30.07,North,0,0.0,0.0,1,0.00,,,0.00,WUHU216HW,2013-10-12 11:13:00,
2013-10-12 07:14:00,40.3,-11.9,30.08,North,0,0.0,0.0,1,0.00,,,0.00,WUHU216HW,2013-10-12 11:14:00,
2013-10-12 07:15:00,40.3,-11.9,30.08,North,0,0.0,0.0,1,0.00,,,0.00,WUHU216HW,2013-10-12 11:15:00,
2013-10-12 07:16:00,40.3,-11.9,30.08,North,0,0.0,0.0,1,0.00,,,0.00,WUHU216HW,2013-10-12 11:16:00,
2013-10-12 07:17:00,40.3,-11.9,30.08,North,0,0.0,0.0,1,0.00,,,0.00,WUHU216HW,2013-10-12 11:17:00,
2013-10-12 07:18:00,40.3,-11.9,30.08,North,0,0.0,0.0,1,0.00,,,0.00,WUHU216HW,2013-10-12 11:18:00,
2013-10-12 07:19:00,40.3,-11.9,30.08,North,0,0.0,0.0,1,0.00,,,0.00,WUHU216HW,2013-10-12 11:19:00,
2013-10-12 07:20:00,40.3,-11.9,30.08,North,0,0.0,0.0,1,0.00,,,0.00,WUHU216HW,2013-10-12 11:20:00,
2013-10-12 07:21:00,40.3,-11.9,30.08,North,0,0.0,0.0,1,0.00,,,0.00,WUHU216HW,2013-10-12 11:21:00,
2013-10-12 07:22:00,40.3,-11.9,30.08,North,0,0.0,0.0,1,0.00,,,0.00,WUHU216HW,2013-10-12 11:22:00,
2013-10-12 07:23:00,40.3,-11.9,30.08,North,0,0.0,0.0,1,0.00,,,0.00,WUHU216HW,2013-10-12 11:23:00,
2013-10-12 07:24:00,40.3,-11.9,30.08,North,0,0.0,0.0,1,0.00,,,0.00,WUHU216HW,2013-10-12 11:24:00,
2013-10-12 07:25:00,40.3,-11.9,30.08,North,0,0.0,0.0,1,0.00,,,0.00,WUHU216HW,2013-10-12 11:25:00,
2013-10-12 07:26:00,40.3,-11.9,30.08,North,0,0.0,0.0,1,0.00,,,0.00,WUHU216HW,2013-10-12 11:26:00,
2013-10-12 07:27:00,40.3,-11.9,30.08,North,0,0.0,0.0,1,0.00,,,0.00,WUHU216HW,2013-10-12 11:27:00,
2013-10-12 07:28:00,40.5,-11.8,30.08,North,0,0.0,0.0,1,0.00,,,0.00,WUHU216HW,2013-10-12 11:28:00,
2013-10-12 07:29:00,40.7,-11.6,30.08,North,0,0.0,0.0,1,0.00,,,0.00,WUHU216HW,2013-10-12 11:29:00,
2013-10-12 07:30:00,40.7,-11.6,30.08,North,0,0.0,0.0,1,0.00,,,0.00,WUHU216HW,2013-10-12 11:30:00,
2013-10-12 07:31:00,40.7,-11.6,30.08,North,0,0.0,0.0,1,0.00,,,0.00,WUHU216HW,2013-10-12 11:31:00,
2013-10-12 07:32:00,40.7,-11.6,30.08,North,0,0.0,0.0,1,0.00,,,0.00,WUHU216HW,2013-10-12 11:32:00,
2013-10-12 07:33:00,40.7,-11.6,30.08,North,0,0.0,0.0,1,0.00,,,0.00,WUHU216HW,2013-10-12 11:33:00,
2013-10-12 07:34:00,40.7,-11.6,30.08,North,0,0.0,0.0,1,0.00,,,0.00,WUHU216HW,2013-10-12 11:34:00,
2013-10-12 07:35:00,40.7,-11.6,30.08,North,0,0.0,0.0,1,0.00,,,0.00,WUHU216HW,2013-10-12 11:35:00,
2013-10-12 07:36:00,40.7,-11.6,30.08,North,0,0.0,0.0,1,0.00,,,0.00,WUHU216HW,2013-10-12 11:36:00,
2013-10-12 07:37:00,40.7,-11.6,30.08,North,0,0.0,0.0,1,0.00,,,0.00,WUHU216HW,2013-10-12 11:37:00,
2013-10-12 07:38:00,40.9,-11.5,30.08,North,0,0.0,0.0,1,0.00,,,0.00,WUHU216HW,2013-10-12 11:38:00,
2013-10-12 07:39:00,40.9,-11.5,30.08,North,0,0.0,0.0,1,0.00,,,0.00,WUHU216HW,2013-10-12 11:39:00,
2013-10-12 07:40:00,40.9,-11.5,30.08,North,0,0.0,0.0,1,0.00,,,0.00,WUHU216HW,2013-10-12 11:40:00,
2013-10-12 07:41:00,40.9,-11.5,30.08,North,0,0.0,0.0,1,0.00,,,0.00,WUHU216HW,2013-10-12 11:41:00,
2013-10-12 07:42:00,41.0,-11.3,30.08,North,0,0.0,0.0,1,0.00,,,0.00,WUHU216HW,2013-10-12 11:42:00,
2013-10-12 07:43:00,41.0,-11.3,30.08,North,0,0.0,0.0,1,0.00,,,0.00,WUHU216HW,2013-10-12 11:43:00,
2013-10-12 07:44:00,41.0,-11.3,30.08,North,0,0.0,0.0,1,0.00,,,0.00,WUHU216HW,2013-10-12 11:44:00,
2013-10-12 07:45:00,40.9,-11.5,30.09,North,0,0.0,0.0,1,0.00,,,0.00,WUHU216HW,2013-10-12 11:45:00,
2013-10-12 07:46:00,41.0,-11.3,30.08,North,0,0.0,0.0,1,0.00,,,0.00,WUHU216HW,2013-10-12 11:46:00,
2013-10-12 07:47:00,40.9,-11.5,30.09,North,0,0.0,0.0,1,0.00,,,0.00,WUHU216HW,2013-10-12 11:47:00,
2013-10-12 07:48:00,41.0,-11.3,30.09,North,0,0.0,0.0,1,0.00,,,0.00,WUHU216HW,2013-10-12 11:48:00,
2013-10-12 07:49:00,41.0,-11.3,30.09,North,0,0.0,0.0,1,0.00,,,0.00,WUHU216HW,2013-10-12 11:49:00,
2013-10-12 07:50:00,41.0,-11.3,30.09,North,0,0.0,0.0,1,0.00,,,0.00,WUHU216HW,2013-10-12 11:50:00,
2013-10-12 07:51:00,41.0,-11.3,30.09,North,0,0.0,0.0,1,0.00,,,0.00,WUHU216HW,2013-10-12 11:51:00,
2013-10-12 07:52:00,41.2,-11.2,30.09,North,0,0.0,0.0,1,0.00,,,0.00,WUHU216HW,2013-10-12 11:52:00,
2013-10-12 07:53:00,41.2,-11.2,30.09,North,0,0.0,0.0,1,0.00,,,0.00,WUHU216HW,2013-10-12 11:53:00,
2013-10-12 07:54:00,41.4,-11.1,30.09,North,0,0.0,0.0,1,0.00,,,0.00,WUHU216HW,2013-10-12 11:54:00,
2013-10-12 07:55:00,41.4,-11.1,30.09,North,0,0.0,0.0,1,0.00,,,0.00,WUHU216HW,2013-10-12 11:55:00,
2013-10-12 07:56:00,41.4,-11.1,30.09,North,0,0.0,0.0,1,0.00,,,0.00,WUHU216HW,2013-10-12 11:56:00,
2013-10-12 07:57:00,41.2,-11.2,30.09,North,0,0.0,0.0,1,0.00,,,0.00,WUHU216HW,2013-10-12 11:57:00,
2013-10-12 07:58:00,41.4,-11.1,30.09,North,0,0.0,0.0,1,0.00,,,0.00,WUHU216HW,2013-10-12 11:58:00,
2013-10-12 07:59:00,41.4,-11.1,30.09,North,0,0.0,0.0,1,0.00,,,0.00,WUHU216HW,2013-10-12 11:59:00,
2013-10-12 08:00:00,41.4,-11.1,30.09,North,0,0.0,0.0,1,0.00,,,0.00,WUHU216HW,2013-10-12 12:00:00,
2013-10-12 08:01:00,41.4,-11.1,30.09,North,0,0.0,0.0,1,0.00,,,0.00,WUHU216HW,2013-10-12 12:01:00,
2013-10-12 08:02:00,41.2,-11.2,30.09,North,0,0.0,0.0,1,0.00,,,0.00,WUHU216HW,2013-10-12 12:02:00,
2013-10-12 08:03:00,41.2,-11.2,30.09,North,0,0.0,0.0,1,0.00,,,0.00,WUHU216HW,2013-10-12 12:03:00,
2013-10-12 08:04:00,41.2,-11.2,30.09,North,0,0.0,0.0,1,0.00,,,0.00,WUHU216HW,2013-10-12 12:04:00,
2013-10-12 08:05:00,41.2,-11.2,30.09,North,0,0.0,0.0,1,0.00,,,0.00,WUHU216HW,2013-10-12 12:05:00,
2013-10-12 08:06:00,41.2,-11.2,30.09,North,0,0.0,0.0,1,0.00,,,0.00,WUHU216HW,2013-10-12 12:06:00,
2013-10-12 08:07:00,41.4,-11.1,30.09,North,0,0.0,0.0,1,0.00,,,0.00,WUHU216HW,2013-10-12 12:07:00,
2013-10-12 08:08:00,41.4,-11.1,30.09,North,0,0.0,0.0,1,0.00,,,0.00,WUHU216HW,2013-10-12 12:08:00,
2013-10-12 08:09:00,41.6,-11.0,30.09,North,0,0.0,0.0,1,0.00,,,0.00,WUHU216HW,2013-10-12 12:09:00,
2013-10-12 08:10:00,41.8,-10.8,30.09,North,0,0.0,0.0,1,0.00,,,0.00,WUHU216HW,2013-10-12 12:10:00,
2013-10-12 08:11:00,41.8,-10.8,30.09,North,0,0.0,0.0,1,0.00,,,0.00,WUHU216HW,2013-10-12 12:11:00,
2013-10-12 08:12:00,41.9,-10.7,30.09,North,0,0.0,0.0,1,0.00,,,0.00,WUHU216HW,2013-10-12 12:12:00,
2013-10-12 08:13:00,42.1,-10.6,30.09,North,0,0.0,0.0,1,0.00,,,0.00,WUHU216HW,2013-10-12 12:13:00,
2013-10-12 08:14:00,42.1,-10.6,30.09,North,0,0.0,0.0,1,0.00,,,0.00,WUHU216HW,2013-10-12 12:14:00,
2013-10-12 08:15:00,42.1,-10.6,30.09,North,0,0.0,0.0,1,0.00,,,0.00,WUHU216HW,2013-10-12 12:15:00,
2013-10-12 08:16:00,42.3,-10.4,30.09,North,0,0.0,0.0,1,0.00,,,0.00,WUHU216HW,2013-10-12 12:16:00,
2013-10-12 08:17:00,42.3,-10.4,30.09,North,0,0.0,0.0,1,0.00,,,0.00,WUHU216HW,2013-10-12 12:17:00,
2013-10-12 08:18:00,42.3,-10.4,30.09,North,0,0.0,0.0,1,0.00,,,0.00,WUHU216HW,2013-10-12 12:18:00,
2013-10-12 08:19:00,42.3,-10.4,30.09,North,0,0.0,0.0,1,0.00,,,0.00,WUHU216HW,2013-10-12 12:19:00,
2013-10-12 08:20:00,42.5,-10.3,30.09,North,0,0.0,0.0,1,0.00,,,0.00,WUHU216HW,2013-10-12 12:20:00,
2013-10-12 08:21:00,42.5,-10.3,30.09,North,0,0.0,0.0,1,0.00,,,0.00,WUHU216HW,2013-10-12 12:21:00,
2013-10-12 08:22:00,42.5,-10.3,30.09,North,0,0.0,0.0,1,0.00,,,0.00,WUHU216HW,2013-10-12 12:22:00,
2013-10-12 08:23:00,42.7,-10.2,30.09,North,0,0.0,0.0,1,0.00,,,0.00,WUHU216HW,2013-10-12 12:23:00,
2013-10-12 08:24:00,42.7,-10.2,30.09,North,0,0.0,0.0,1,0.00,,,0.00,WUHU216HW,2013-10-12 12:24:00,
2013-10-12 08:25:00,42.8,-10.1,30.09,North,0,0.0,0.0,1,0.00,,,0.00,WUHU216HW,2013-10-12 12:25:00,
2013-10-12 08:26:00,42.8,-10.1,30.09,North,0,0.0,0.0,1,0.00,,,0.00,WUHU216HW,2013-10-12 12:26:00,
2013-10-12 08:27:00,42.8,-10.1,30.09,North,0,0.0,0.0,1,0.00,,,0.00,WUHU216HW,2013-10-12 12:27:00,
2013-10-12 08:28:00,42.8,-10.1,30.09,North,0,0.0,0.0,1,0.00,,,0.00,WUHU216HW,2013-10-12 12:28:00,
2013-10-12 08:29:00,43.0,-9.9,30.09,North,0,0.0,0.0,1,0.00,,,0.00,WUHU216HW,2013-10-12 12:29:00,
2013-10-12 08:30:00,43.0,-9.9,30.09,North,0,0.0,0.0,1,0.00,,,0.00,WUHU216HW,2013-10-12 12:30:00,
2013-10-12 08:31:00,43.2,-9.8,30.09,North,0,0.0,0.0,1,0.00,,,0.00,WUHU216HW,2013-10-12 12:31:00,
2013-10-12 08:32:00,43.4,-9.6,30.09,North,0,0.0,0.0,1,0.00,,,0.00,WUHU216HW,2013-10-12 12:32:00,
2013-10-12 08:33:00,43.4,-9.6,30.09,North,0,0.0,0.0,1,0.00,,,0.00,WUHU216HW,2013-10-12 12:33:00,
2013-10-12 08:34:00,43.4,-9.6,30.09,North,0,0.0,0.0,1,0.00,,,0.00,WUHU216HW,2013-10-12 12:34:00,
2013-10-12 08:35:00,43.6,-9.5,30.09,North,0,0.0,0.0,1,0.00,,,0.00,WUHU216HW,2013-10-12 12:35:00,
2013-10-12 08:36:00,43.6,-9.5,30.09,North,0,0.0,0.0,1,0.00,,,0.00,WUHU216HW,2013-10-12 12:36:00,
2013-10-12 08:37:00,43.7,-9.4,30.09,North,0,0.0,0.0,1,0.00,,,0.00,WUHU216HW,2013-10-12 12:37:00,
2013-10-12 08:38:00,43.6,-9.5,30.09,North,0,0.0,0.0,1,0.00,,,0.00,WUHU216HW,2013-10-12 12:38:00,
2013-10-12 08:39:00,43.7,-9.4,30.09,North,0,0.0,0.0,1,0.00,,,0.00,WUHU216HW,2013-10-12 12:39:00,
2013-10-12 08:40:00,43.9,-9.2,30.10,North,0,0.0,0.0,1,0.00,,,0.00,WUHU216HW,2013-10-12 12:40:00,
2013-10-12 08:41:00,43.9,-9.2,30.10,North,0,0.0,0.0,1,0.00,,,0.00,WUHU216HW,2013-10-12 12:41:00,
2013-10-12 08:42:00,43.9,-9.2,30.10,North,0,0.0,0.0,1,0.00,,,0.00,WUHU216HW,2013-10-12 12:42:00,
2013-10-12 08:43:00,43.9,-9.2,30.10,North,0,0.0,0.0,1,0.00,,,0.00,WUHU216HW,2013-10-12 12:43:00,
2013-10-12 08:44:00,44.3,-8.9,30.09,North,0,0.0,0.0,1,0.00,,,0.00,WUHU216HW,2013-10-12 12:44:00,
2013-10-12 08:45:00,44.3,-8.9,30.10,North,0,0.0,0.0,1,0.00,,,0.00,WUHU216HW,2013-10-12 12:45:00,
2013-10-12 08:46:00,44.3,-8.9,30.09,North,0,0.0,0.0,1,0.00,,,0.00,WUHU216HW,2013-10-12 12:46:00,
2013-10-12 08:47:00,44.3,-8.9,30.10,North,0,0.0,0.0,1,0.00,,,0.00,WUHU216HW,2013-10-12 12:47:00,
2013-10-12 08:48:00,44.3,-8.9,30.10,North,0,0.0,0.0,1,0.00,,,0.00,WUHU216HW,2013-10-12 12:48:00,
2013-10-12 08:49:00,44.5,-8.8,30.10,North,0,0.0,0.0,1,0.00,,,0.00,WUHU216HW,2013-10-12 12:49:00,
2013-10-12 08:50:00,44.5,-8.8,30.10,North,0,0.0,0.0,1,0.00,,,0.00,WUHU216HW,2013-10-12 12:50:00,
2013-10-12 08:51:00,44.6,-8.6,30.10,North,0,0.0,0.0,1,0.00,,,0.00,WUHU216HW,2013-10-12 12:51:00,
2013-10-12 08:52:00,44.6,-8.6,30.10,North,0,0.0,0.0,1,0.00,,,0.00,WUHU216HW,2013-10-12 12:52:00,
2013-10-12 08:53:00,44.6,-8.6,30.10,North,0,0.0,0.0,1,0.00,,,0.00,WUHU216HW,2013-10-12 12:53:00,
2013-10-12 08:54:00,44.6,-8.6,30.10,North,0,0.0,0.0,1,0.00,,,0.00,WUHU216HW,2013-10-12 12:54:00,
2013-10-12 08:55:00,44.8,-8.4,30.10,North,0,0.0,0.0,1,0.00,,,0.00,WUHU216HW,2013-10-12 12:55:00,
2013-10-12 08:56:00,45.0,-8.4,30.10,North,0,0.0,0.0,1,0.00,,,0.00,WUHU216HW,2013-10-12 12:56:00,
2013-10-12 08:57:00,45.0,-8.4,30.10,North,0,0.0,0.0,1,0.00,,,0.00,WUHU216HW,2013-10-12 12:57:00,
2013-10-12 08:58:00,45.0,-8.4,30.10,North,0,0.0,0.0,1,0.00,,,0.00,WUHU216HW,2013-10-12 12:58:00,
2013-10-12 08:59:00,45.0,-8.4,30.10,North,0,0.0,0.0,1,0.00,,,0.00,WUHU216HW,2013-10-12 12:59:00,
2013-10-12 09:00:00,45.2,-8.2,30.10,North,0,0.0,0.0,1,0.00,,,0.00,WUHU216HW,2013-10-12 13:00:00,
2013-10-12 09:01:00,45.2,-8.2,30.10,North,0,0.0,0.0,1,0.00,,,0.00,WUHU216HW,2013-10-12 13:01:00,
2013-10-12 09:02:00,45.4,-8.1,30.10,North,0,0.0,0.0,1,0.00,,,0.00,WUHU216HW,2013-10-12 13:02:00,
2013-10-12 09:03:00,45.5,-7.9,30.10,North,0,0.0,0.0,1,0.00,,,0.00,WUHU216HW,2013-10-12 13:03:00,
2013-10-12 09:04:00,45.5,-7.9,30.10,North,0,0.0,0.0,1,0.00,,,0.00,WUHU216HW,2013-10-12 13:04:00,
2013-10-12 09:05:00,45.5,-7.9,30.10,North,0,0.0,0.0,1,0.00,,,0.00,WUHU216HW,2013-10-12 13:05:00,
2013-10-12 09:06:00,45.7,-7.7,30.10,North,0,0.0,0.0,1,0.00,,,0.00,WUHU216HW,2013-10-12 13:06:00,
2013-10-12 09:07:00,45.7,-7.7,30.10,North,0,0.0,0.0,1,0.00,,,0.00,WUHU216HW,2013-10-12 13:07:00,
2013-10-12 09:08:00,46.1,-7.5,30.10,North,0,0.0,0.0,1,0.00,,,0.00,WUHU216HW,2013-10-12 13:08:00,
2013-10-12 09:09:00,46.1,-7.5,30.10,North,0,0.0,0.0,1,0.00,,,0.00,WUHU216HW,2013-10-12 13:09:00,
2013-10-12 09:10:00,46.1,-7.5,30.10,North,0,0.0,0.0,1,0.00,,,0.00,WUHU216HW,2013-10-12 13:10:00,
2013-10-12 09:11:00,46.1,-7.5,30.09,North,0,0.0,0.0,1,0.00,,,0.00,WUHU216HW,2013-10-12 13:11:00,
2013-10-12 09:12:00,46.3,-7.4,30.10,North,0,0.0,0.0,1,0.00,,,0.00,WUHU216HW,2013-10-12 13:12:00,
2013-10-12 09:13:00,46.3,-7.4,30.10,North,0,0.0,0.0,1,0.00,,,0.00,WUHU216HW,2013-10-12 13:13:00,
2013-10-12 09:14:00,46.3,-7.4,30.10,North,0,0.0,0.0,1,0.00,,,0.00,WUHU216HW,2013-10-12 13:14:00,
2013-10-12 09:15:00,46.4,-7.2,30.10,North,0,0.0,0.0,1,0.00,,,0.00,WUHU216HW,2013-10-12 13:15:00,
2013-10-12 09:16:00,46.4,-7.2,30.10,North,0,0.0,0.0,1,0.00,,,0.00,WUHU216HW,2013-10-12 13:16:00,
2013-10-12 09:17:00,46.4,-7.2,30.10,North,0,0.0,0.0,1,0.00,,,0.00,WUHU216HW,2013-10-12 13:17:00,
2013-10-12 09:18:00,46.6,-7.0,30.10,North,0,0.0,0.0,1,0.00,,,0.00,WUHU216HW,2013-10-12 13:18:00,
2013-10-12 09:19:00,46.6,-7.0,30.10,North,0,0.0,0.0,1,0.00,,,0.00,WUHU216HW,2013-10-12 13:19:00,
2013-10-12 09:20:00,46.6,-7.0,30.10,North,0,0.0,0.0,1,0.00,,,0.00,WUHU216HW,2013-10-12 13:20:00,
2013-10-12 09:21:00,46.8,-6.9,30.10,North,0,0.0,0.0,1,0.00,,,0.00,WUHU216HW,2013-10-12 13:21:00,
2013-10-12 09:22:00,47.0,-6.7,30.10,North,0,0.0,0.0,1,0.00,,,0.00,WUHU216HW,2013-10-12 13:22:00,
2013-10-12 09:23:00,46.8,-6.9,30.10,North,0,0.0,0.0,1,0.00,,,0.00,WUHU216HW,2013-10-12 13:23:00,
2013-10-12 09:24:00,47.0,-6.7,30.10,North,0,0.0,0.0,1,0.00,,,0.00,WUHU216HW,2013-10-12 13:24:00,
2013-10-12 09:25:00,47.2,-6.7,30.10,North,0,0.0,0.0,1,0.00,,,0.00,WUHU216HW,2013-10-12 13:25:00,
2013-10-12 09:26:00,47.2,-6.7,30.10,North,0,0.0,0.0,1,0.00,,,0.00,WUHU216HW,2013-10-12 13:26:00,
2013-10-12 09:27:00,47.2,-6.7,30.10,North,0,0.0,0.0,1,0.00,,,0.00,WUHU216HW,2013-10-12 13:27:00,
2013-10-12 09:28:00,47.3,-6.5,30.10,North,0,0.0,0.0,1,0.00,,,0.00,WUHU216HW,2013-10-12 13:28:00,
2013-10-12 09:29:00,47.3,-6.5,30.10,North,0,0.0,0.0,1,0.00,,,0.00,WUHU216HW,2013-10-12 13:29:00,
2013-10-12 09:30:00,47.3,-6.5,30.10,North,0,0.0,0.0,1,0.00,,,0.00,WUHU216HW,2013-10-12 13:30:00,
2013-10-12 09:31:00,47.5,-6.3,30.10,North,0,0.0,0.0,1,0.00,,,0.00,WUHU216HW,2013-10-12 13:31:00,
2013-10-12 09:32:00,47.7,-6.2,30.10,North,0,0.0,0.0,1,0.00,,,0.00,WUHU216HW,2013-10-12 13:32:00,
2013-10-12 09:33:00,47.9,-6.0,30.10,North,0,0.0,0.0,1,0.00,,,0.00,WUHU216HW,2013-10-12 13:33:00,
2013-10-12 09:34:00,47.9,-6.0,30.10,North,0,0.0,0.0,1,0.00,,,0.00,WUHU216HW,2013-10-12 13:34:00,
2013-10-12 09:35:00,47.9,-6.0,30.10,North,0,0.0,0.0,1,0.00,,,0.00,WUHU216HW,2013-10-12 13:35:00,
2013-10-12 09:36:00,48.1,-5.9,30.10,North,0,0.0,0.0,1,0.00,,,0.00,WUHU216HW,2013-10-12 13:36:00,
2013-10-12 09:37:00,48.1,-5.9,30.10,North,0,0.0,0.0,1,0.00,,,0.00,WUHU216HW,2013-10-12 13:37:00,
2013-10-12 09:38:00,48.2,-5.8,30.10,North,0,0.0,0.0,1,0.00,,,0.00,WUHU216HW,2013-10-12 13:38:00,
2013-10-12 09:39:00,48.2,-5.8,30.10,North,0,0.0,0.0,1,0.00,,,0.00,WUHU216HW,2013-10-12 13:39:00,
2013-10-12 09:40:00,48.2,-5.8,30.10,North,0,0.0,0.0,1,0.00,,,0.00,WUHU216HW,2013-10-12 13:40:00,
2013-10-12 09:41:00,48.2,-5.8,30.10,North,0,0.0,0.0,1,0.00,,,0.00,WUHU216HW,2013-10-12 13:41:00,
2013-10-12 09:42:00,48.4,-5.7,30.10,North,0,0.0,0.0,1,0.00,,,0.00,WUHU216HW,2013-10-12 13:42:00,
2013-10-12 09:43:00,48.6,-5.5,30.10,North,0,0.0,0.0,1,0.00,,,0.00,WUHU216HW,2013-10-12 13:43:00,
2013-10-12 09:44:00,48.6,-5.5,30.10,North,0,0.0,0.0,1,0.00,,,0.00,WUHU216HW,2013-10-12 13:44:00,
2013-10-12 09:45:00,48.8,-5.4,30.10,North,0,0.0,0.0,1,0.00,,,0.00,WUHU216HW,2013-10-12 13:45:00,
2013-10-12 09:46:00,49.0,-5.2,30.10,North,0,0.0,0.0,1,0.00,,,0.00,WUHU216HW,2013-10-12 13:46:00,
2013-10-12 09:47:00,49.1,-5.1,30.10,North,0,0.0,0.0,1,0.00,,,0.00,WUHU216HW,2013-10-12 13:47:00,
2013-10-12 09:48:00,49.3,-5.0,30.10,North,0,0.0,0.0,1,0.00,,,0.00,WUHU216HW,2013-10-12 13:48:00,
2013-10-12 09:49:00,49.3,-5.0,30.10,North,0,0.0,0.0,1,0.00,,,0.00,WUHU216HW,2013-10-12 13:49:00,
2013-10-12 09:50:00,49.5,-4.8,30.10,North,0,0.0,0.0,1,0.00,,,0.00,WUHU216HW,2013-10-12 13:50:00,
2013-10-12 09:51:00,49.7,-4.8,30.10,North,0,0.0,0.0,1,0.00,,,0.00,WUHU216HW,2013-10-12 13:51:00,
2013-10-12 09:52:00,49.7,-4.8,30.10,North,0,0.0,0.0,1,0.00,,,0.00,WUHU216HW,2013-10-12 13:52:00,
2013-10-12 09:53:00,49.9,-4.6,30.10,North,0,0.0,0.0,1,0.00,,,0.00,WUHU216HW,2013-10-12 13:53:00,
2013-10-12 09:54:00,50.0,-4.5,30.10,North,0,0.0,0.0,1,0.00,,,0.00,WUHU216HW,2013-10-12 13:54:00,
2013-10-12 09:55:00,50.2,-4.3,30.10,North,0,0.0,0.0,1,0.00,,,0.00,WUHU216HW,2013-10-12 13:55:00,
2013-10-12 09:56:00,50.4,-4.2,30.10,North,0,0.0,0.0,1,0.00,,,0.00,WUHU216HW,2013-10-12 13:56:00,
2013-10-12 09:57:00,50.4,-4.2,30.10,North,0,0.0,0.0,1,0.00,,,0.00,WUHU216HW,2013-10-12 13:57:00,
2013-10-12 09:58:00,50.6,-4.0,30.10,North,0,0.0,0.0,1,0.00,,,0.00,WUHU216HW,2013-10-12 13:58:00,
2013-10-12 09:59:00,50.6,-4.0,30.10,North,0,0.0,0.0,1,0.00,,,0.00,WUHU216HW,2013-10-12 13:59:00,
2013-10-12 10:00:00,50.8,-4.0,30.10,North,0,0.0,0.0,1,0.00,,,0.00,WUHU216HW,2013-10-12 14:00:00,
2013-10-12 10:01:00,50.8,-4.0,30.10,North,0,0.0,0.0,1,0.00,,,0.00,WUHU216HW,2013-10-12 14:01:00,
2013-10-12 10:02:00,50.8,-4.0,30.10,North,0,0.0,0.0,1,0.00,,,0.00,WUHU216HW,2013-10-12 14:02:00,
2013-10-12 10:03:00,50.9,-3.8,30.10,North,0,0.0,0.0,1,0.00,,,0.00,WUHU216HW,2013-10-12 14:03:00,
2013-10-12 10:04:00,51.1,-3.6,30.10,North,0,0.0,0.0,1,0.00,,,0.00,WUHU216HW,2013-10-12 14:04:00,
2013-10-12 10:05:00,51.1,-3.6,30.10,North,0,0.0,0.0,1,0.00,,,0.00,WUHU216HW,2013-10-12 14:05:00,
2013-10-12 10:06:00,51.5,-3.3,30.10,North,0,0.0,0.0,1,0.00,,,0.00,WUHU216HW,2013-10-12 14:06:00,
2013-10-12 10:07:00,51.5,-3.3,30.10,North,0,0.0,0.0,1,0.00,,,0.00,WUHU216HW,2013-10-12 14:07:00,
2013-10-12 10:08:00,51.5,-3.3,30.10,North,0,0.0,0.0,1,0.00,,,0.00,WUHU216HW,2013-10-12 14:08:00,
2013-10-12 10:09:00,51.7,-3.2,30.10,North,0,0.0,0.0,1,0.00,,,0.00,WUHU216HW,2013-10-12 14:09:00,
2013-10-12 10:10:00,51.8,-3.1,30.10,North,0,0.0,0.0,1,0.00,,,0.00,WUHU216HW,2013-10-12 14:10:00,
2013-10-12 10:11:00,51.8,-3.1,30.10,North,0,0.0,0.0,1,0.00,,,0.00,WUHU216HW,2013-10-12 14:11:00,
2013-10-12 10:12:00,52.0,-2.9,30.10,North,0,0.0,0.0,1,0.00,,,0.00,WUHU216HW,2013-10-12 14:12:00,
2013-10-12 10:13:00,52.2,-2.8,30.10,North,0,0.0,0.0,1,0.00,,,0.00,WUHU216HW,2013-10-12 14:13:00,
2013-10-12 10:14:00,52.2,-2.8,30.09,North,0,0.0,0.0,1,0.00,,,0.00,WUHU216HW,2013-10-12 14:14:00,
2013-10-12 10:15:00,52.2,-2.8,30.10,North,0,0.0,0.0,1,0.00,,,0.00,WUHU216HW,2013-10-12 14:15:00,
2013-10-12 10:16:00,52.4,-2.6,30.09,North,0,0.0,0.0,1,0.00,,,0.00,WUHU216HW,2013-10-12 14:16:00,
2013-10-12 10:17:00,52.6,-2.5,30.09,North,0,0.0,0.0,1,0.00,,,0.00,WUHU216HW,2013-10-12 14:17:00,
2013-10-12 10:18:00,52.7,-2.3,30.10,North,0,0.0,0.0,1,0.00,,,0.00,WUHU216HW,2013-10-12 14:18:00,
2013-10-12 10:19:00,52.7,-2.3,30.10,North,0,0.0,0.0,1,0.00,,,0.00,WUHU216HW,2013-10-12 14:19:00,
2013-10-12 10:20:00,52.9,-2.1,30.10,North,0,0.0,0.0,1,0.00,,,0.00,WUHU216HW,2013-10-12 14:20:00,
2013-10-12 10:21:00,52.9,-2.1,30.09,North,0,0.0,0.0,1,0.00,,,0.00,WUHU216HW,2013-10-12 14:21:00,
2013-10-12 10:22:00,52.9,-2.1,30.10,North,0,0.0,0.0,1,0.00,,,0.00,WUHU216HW,2013-10-12 14:22:00,
2013-10-12 10:23:00,52.9,-2.1,30.10,North,0,0.0,0.0,1,0.00,,,0.00,WUHU216HW,2013-10-12 14:23:00,
2013-10-12 10:24:00,53.1,-2.1,30.10,North,0,0.0,0.0,1,0.00,,,0.00,WUHU216HW,2013-10-12 14:24:00,
2013-10-12 10:25:00,53.1,-2.1,30.10,North,0,0.0,0.0,1,0.00,,,0.00,WUHU216HW,2013-10-12 14:25:00,
2013-10-12 10:26:00,53.1,-2.1,30.10,North,0,0.0,0.0,1,0.00,,,0.00,WUHU216HW,2013-10-12 14:26:00,
2013-10-12 10:27:00,53.3,-1.9,30.10,North,0,0.0,0.0,1,0.00,,,0.00,WUHU216HW,2013-10-12 14:27:00,
2013-10-12 10:28:00,53.3,-1.9,30.10,North,0,0.0,0.0,1,0.00,,,0.00,WUHU216HW,2013-10-12 14:28:00,
2013-10-12 10:29:00,53.3,-1.9,30.10,North,0,0.0,0.0,1,0.00,,,0.00,WUHU216HW,2013-10-12 14:29:00,
2013-10-12 10:30:00,53.3,-1.9,30.10,North,0,0.0,0.0,1,0.00,,,0.00,WUHU216HW,2013-10-12 14:30:00,
2013-10-12 10:31:00,53.5,-1.8,30.10,North,0,0.0,0.0,1,0.00,,,0.00,WUHU216HW,2013-10-12 14:31:00,
2013-10-12 10:32:00,53.6,-1.6,30.10,North,0,0.0,0.0,1,0.00,,,0.00,WUHU216HW,2013-10-12 14:32:00,
2013-10-12 10:33:00,53.8,-1.4,30.10,North,0,0.0,0.0,1,0.00,,,0.00,WUHU216HW,2013-10-12 14:33:00,
2013-10-12 10:34:00,54.0,-1.3,30.10,North,0,0.0,0.0,1,0.00,,,0.00,WUHU216HW,2013-10-12 14:34:00,
2013-10-12 10:35:00,54.0,-1.3,30.10,North,0,0.0,0.0,1,0.00,,,0.00,WUHU216HW,2013-10-12 14:35:00,
2013-10-12 10:36:00,54.2,-1.2,30.10,North,0,0.0,0.0,1,0.00,,,0.00,WUHU216HW,2013-10-12 14:36:00,
2013-10-12 10:37:00,54.2,-1.2,30.10,North,0,0.0,0.0,1,0.00,,,0.00,WUHU216HW,2013-10-12 14:37:00,
2013-10-12 10:38:00,54.4,-1.1,30.10,North,0,0.0,0.0,1,0.00,,,0.00,WUHU216HW,2013-10-12 14:38:00,
2013-10-12 10:39:00,54.5,-0.9,30.10,North,0,0.0,0.0,1,0.00,,,0.00,WUHU216HW,2013-10-12 14:39:00,
2013-10-12 10:40:00,54.7,-0.7,30.10,North,0,0.0,0.0,1,0.00,,,0.00,WUHU216HW,2013-10-12 14:40:00,
2013-10-12 10:41:00,55.1,-0.4,30.10,North,0,0.0,0.0,1,0.00,,,0.00,WUHU216HW,2013-10-12 14:41:00,
2013-10-12 10:42:00,55.1,-0.4,30.10,North,0,0.0,0.0,1,0.00,,,0.00,WUHU216HW,2013-10-12 14:42:00,
2013-10-12 10:43:00,55.1,-0.4,30.10,North,0,0.0,0.0,1,0.00,,,0.00,WUHU216HW,2013-10-12 14:43:00,
2013-10-12 10:44:00,55.3,-0.4,30.09,North,0,0.0,0.0,1,0.00,,,0.00,WUHU216HW,2013-10-12 14:44:00,
2013-10-12 10:45:00,55.4,-0.2,30.10,North,0,0.0,0.0,1,0.00,,,0.00,WUHU216HW,2013-10-12 14:45:00,
2013-10-12 10:46:00,55.6,-0.1,30.10,North,0,0.0,0.0,1,0.00,,,0.00,WUHU216HW,2013-10-12 14:46:00,
2013-10-12 10:47:00,56.2,0.4,30.10,North,0,0.0,0.0,1,0.00,,,0.00,WUHU216HW,2013-10-12 14:47:00,
2013-10-12 10:48:00,56.2,0.4,30.10,North,0,0.0,0.0,1,0.00,,,0.00,WUHU216HW,2013-10-12 14:48:00,
2013-10-12 10:49:00,56.3,0.5,30.10,North,0,0.0,0.0,1,0.00,,,0.00,WUHU216HW,2013-10-12 14:49:00,
2013-10-12 10:50:00,56.5,0.5,30.10,North,0,0.0,0.0,1,0.00,,,0.00,WUHU216HW,2013-10-12 14:50:00,
2013-10-12 10:51:00,56.5,0.5,30.10,North,0,0.0,0.0,1,0.00,,,0.00,WUHU216HW,2013-10-12 14:51:00,
2013-10-12 10:52:00,56.5,0.5,30.10,North,0,0.0,0.0,1,0.00,,,0.00,WUHU216HW,2013-10-12 14:52:00,
2013-10-12 10:53:00,56.9,0.8,30.10,North,0,0.0,0.0,1,0.00,,,0.00,WUHU216HW,2013-10-12 14:53:00,
2013-10-12 10:54:00,57.1,1.0,30.10,North,0,0.0,0.0,1,0.00,,,0.00,WUHU216HW,2013-10-12 14:54:00,
2013-10-12 10:55:00,57.2,1.1,30.10,North,0,0.0,0.0,1,0.00,,,0.00,WUHU216HW,2013-10-12 14:55:00,
2013-10-12 10:56:00,57.4,1.3,30.10,North,0,0.0,0.0,1,0.00,,,0.00,WUHU216HW,2013-10-12 14:56:00,
2013-10-12 10:57:00,58.1,1.8,30.10,North,0,0.0,0.0,1,0.00,,,0.00,WUHU216HW,2013-10-12 14:57:00,
2013-10-12 10:58:00,58.1,1.8,30.10,North,0,0.0,0.0,1,0.00,,,0.00,WUHU216HW,2013-10-12 14:58:00,
2013-10-12 10:59:00,58.7,2.3,30.10,North,0,0.0,0.0,1,0.00,,,0.00,WUHU216HW,2013-10-12 14:59:00,
2013-10-12 11:00:00,58.7,2.3,30.09,North,0,0.0,0.0,1,0.00,,,0.00,WUHU216HW,2013-10-12 15:00:00,
2013-10-12 11:01:00,59.0,2.5,30.09,North,0,0.0,0.0,1,0.00,,,0.00,WUHU216HW,2013-10-12 15:01:00,
2013-10-12 11:02:00,59.9,3.2,30.09,North,0,0.0,0.0,1,0.00,,,0.00,WUHU216HW,2013-10-12 15:02:00,
2013-10-12 11:03:00,59.9,3.2,30.09,North,0,0.0,0.0,1,0.00,,,0.00,WUHU216HW,2013-10-12 15:03:00,
2013-10-12 11:04:00,59.6,3.0,30.09,North,0,0.0,0.0,1,0.00,,,0.00,WUHU216HW,2013-10-12 15:04:00,
2013-10-12 11:05:00,59.8,3.1,30.09,North,0,0.0,0.0,1,0.00,,,0.00,WUHU216HW,2013-10-12 15:05:00,
2013-10-12 11:06:00,59.8,3.1,30.09,North,0,0.0,0.0,1,0.00,,,0.00,WUHU216HW,2013-10-12 15:06:00,
2013-10-12 11:07:00,60.1,3.4,30.09,North,0,0.0,0.0,1,0.00,,,0.00,WUHU216HW,2013-10-12 15:07:00,
2013-10-12 11:08:00,60.5,3.7,30.09,North,0,0.0,0.0,1,0.00,,,0.00,WUHU216HW,2013-10-12 15:08:00,
2013-10-12 11:09:00,60.7,3.8,30.09,North,0,0.0,0.0,1,0.00,,,0.00,WUHU216HW,2013-10-12 15:09:00,
2013-10-12 11:10:00,61.9,4.9,30.09,North,0,0.0,0.0,5,0.00,,,0.00,WUHU216HW,2013-10-12 15:10:00,
2013-10-12 11:11:00,61.2,4.2,30.09,North,0,0.0,0.0,1,0.00,,,0.00,WUHU216HW,2013-10-12 15:11:00,
2013-10-12 11:12:00,60.8,4.0,30.09,North,0,0.0,0.0,1,0.00,,,0.00,WUHU216HW,2013-10-12 15:12:00,
2013-10-12 11:13:00,60.8,4.0,30.09,North,0,0.0,0.0,1,0.00,,,0.00,WUHU216HW,2013-10-12 15:13:00,
2013-10-12 11:14:00,61.0,4.2,30.09,North,0,0.0,0.0,1,0.00,,,0.00,WUHU216HW,2013-10-12 15:14:00,
2013-10-12 11:15:00,61.2,4.2,30.09,North,0,0.0,0.0,1,0.00,,,0.00,WUHU216HW,2013-10-12 15:15:00,
2013-10-12 11:16:00,61.6,4.5,30.09,North,0,0.0,0.0,1,0.00,,,0.00,WUHU216HW,2013-10-12 15:16:00,
2013-10-12 11:17:00,61.7,4.7,30.09,North,0,0.0,0.0,1,0.00,,,0.00,WUHU216HW,2013-10-12 15:17:00,
2013-10-12 11:18:00,61.9,4.9,30.09,North,0,0.0,0.0,1,0.00,,,0.00,WUHU216HW,2013-10-12 15:18:00,
2013-10-12 11:19:00,62.1,5.0,30.09,North,0,0.0,0.0,1,0.00,,,0.00,WUHU216HW,2013-10-12 15:19:00,
2013-10-12 11:20:00,61.9,4.9,30.09,North,0,0.0,0.0,1,0.00,,,0.00,WUHU216HW,2013-10-12 15:20:00,
2013-10-12 11:21:00,62.1,5.0,30.09,North,0,0.0,0.0,1,0.00,,,0.00,WUHU216HW,2013-10-12 15:21:00,
2013-10-12 11:22:00,62.3,5.1,30.09,North,0,0.0,0.0,1,0.00,,,0.00,WUHU216HW,2013-10-12 15:22:00,
2013-10-12 11:23:00,64.1,20.9,30.09,North,0,0.0,0.0,19,0.00,,,0.00,WUHU216HW,2013-10-12 15:23:00,
2013-10-12 11:24:00,63.7,7.8,30.09,North,0,0.0,0.0,11,0.00,,,0.00,WUHU216HW,2013-10-12 15:24:00,
2013-10-12 11:25:00,63.9,7.8,30.09,North,0,0.0,0.0,11,0.00,,,0.00,WUHU216HW,2013-10-12 15:25:00,
2013-10-12 11:26:00,63.5,6.0,30.09,North,0,0.0,0.0,2,0.00,,,0.00,WUHU216HW,2013-10-12 15:26:00,
2013-10-12 11:27:00,64.8,-13.2,30.09,North,0,0.0,0.0,4,0.00,,,0.00,WUHU216HW,2013-10-12 15:27:00,
2013-10-12 11:28:00,64.1,6.4,30.09,North,0,0.0,0.0,8,0.00,,,0.00,WUHU216HW,2013-10-12 15:28:00,
2013-10-12 11:29:00,63.9,6.3,30.09,North,0,0.0,0.0,3,0.00,,,0.00,WUHU216HW,2013-10-12 15:29:00,
2013-10-12 11:30:00,64.4,8.3,30.09,North,0,0.0,0.0,11,0.00,,,0.00,WUHU216HW,2013-10-12 15:30:00,
2013-10-12 11:31:00,64.4,6.7,30.09,North,0,0.0,0.0,9,0.00,,,0.00,WUHU216HW,2013-10-12 15:31:00,
2013-10-12 11:32:00,64.3,6.6,30.09,North,0,0.0,0.0,3,0.00,,,0.00,WUHU216HW,2013-10-12 15:32:00,
2013-10-12 11:33:00,65.2,19.2,30.09,North,0,0.0,0.0,17,0.00,,,0.00,WUHU216HW,2013-10-12 15:33:00,
2013-10-12 11:34:00,65.5,25.5,30.09,North,0,0.0,0.0,22,0.00,,,0.00,WUHU216HW,2013-10-12 15:34:00,
2013-10-12 11:35:00,65.3,21.6,30.09,North,0,0.0,0.0,19,0.00,,,0.00,WUHU216HW,2013-10-12 15:35:00,
2013-10-12 11:36:00,65.5,20.2,30.09,North,0,0.0,0.0,18,0.00,,,0.00,WUHU216HW,2013-10-12 15:36:00,
2013-10-12 11:37:00,65.7,24.5,30.09,North,0,0.0,0.0,21,0.00,,,0.00,WUHU216HW,2013-10-12 15:37:00,
2013-10-12 11:38:00,65.5,18.6,30.09,North,0,0.0,0.0,17,0.00,,,0.00,WUHU216HW,2013-10-12 15:38:00,
2013-10-12 11:39:00,66.1,28.8,30.09,North,0,0.0,0.0,25,0.00,,,0.00,WUHU216HW,2013-10-12 15:39:00,
2013-10-12 11:40:00,66.2,32.1,30.09,North,0,0.0,0.0,28,0.00,,,0.00,WUHU216HW,2013-10-12 15:40:00,
2013-10-12 11:41:00,66.4,33.8,30.09,North,0,0.0,0.0,30,0.00,,,0.00,WUHU216HW,2013-10-12 15:41:00,
2013-10-12 11:42:00,66.2,32.1,30.09,North,0,0.0,0.0,28,0.00,,,0.00,WUHU216HW,2013-10-12 15:42:00,
2013-10-12 11:43:00,66.2,25.9,30.09,North,0,0.0,0.0,22,0.00,,,0.00,WUHU216HW,2013-10-12 15:43:00,
2013-10-12 11:44:00,66.4,26.1,30.09,North,0,0.0,0.0,22,0.00,,,0.00,WUHU216HW,2013-10-12 15:44:00,
2013-10-12 11:45:00,67.1,36.2,30.09,North,0,0.0,0.0,32,0.00,,,0.00,WUHU216HW,2013-10-12 15:45:00,
2013-10-12 11:46:00,67.5,36.5,30.09,North,0,0.0,0.0,32,0.00,,,0.00,WUHU216HW,2013-10-12 15:46:00,
2013-10-12 11:47:00,67.9,37.5,30.09,North,0,0.0,0.0,33,0.00,,,0.00,WUHU216HW,2013-10-12 15:47:00,
2013-10-12 11:48:00,68.0,28.5,30.09,North,0,0.0,0.0,23,0.00,,,0.00,WUHU216HW,2013-10-12 15:48:00,
2013-10-12 11:49:00,68.9,38.5,30.09,North,0,0.0,0.0,33,0.00,,,0.00,WUHU216HW,2013-10-12 15:49:00,
2013-10-12 11:50:00,69.1,35.5,30.09,North,0,0.0,0.0,29,0.00,,,0.00,WUHU216HW,2013-10-12 15:50:00,
2013-10-12 11:51:00,69.7,35.9,30.09,North,0,0.0,0.0,29,0.00,,,0.00,WUHU216HW,2013-10-12 15:51:00,
2013-10-12 11:52:00,70.4,46.1,30.09,North,0,0.0,0.0,42,0.00,,,0.00,WUHU216HW,2013-10-12 15:52:00,
2013-10-12 11:53:00,70.6,46.9,30.09,North,0,0.0,0.0,43,0.00,,,0.00,WUHU216HW,2013-10-12 15:53:00,
2013-10-12 11:54:00,70.9,43.9,30.08,North,0,0.0,0.0,38,0.00,,,0.00,WUHU216HW,2013-10-12 15:54:00,
2013-10-12 11:55:00,70.9,48.4,30.09,North,0,0.0,0.0,45,0.00,,,0.00,WUHU216HW,2013-10-12 15:55:00,
2013-10-12 11:56:00,71.3,45.0,30.09,North,0,0.0,0.0,39,0.00,,,0.00,WUHU216HW,2013-10-12 15:56:00,
2013-10-12 11:57:00,70.4,51.4,30.09,North,0,0.0,0.0,51,0.00,,,0.00,WUHU216HW,2013-10-12 15:57:00,
2013-10-12 11:58:00,69.8,50.4,30.09,North,0,0.0,0.0,50,0.00,,,0.00,WUHU216HW,2013-10-12 15:58:00,
2013-10-12 11:59:00,70.6,49.2,30.09,North,0,0.0,0.0,47,0.00,,,0.00,WUHU216HW,2013-10-12 15:59:00,
2013-10-12 12:00:00,70.9,49.6,30.09,North,0,0.0,0.0,47,0.00,,,0.00,WUHU216HW,2013-10-12 16:00:00,
2013-10-12 12:01:00,70.4,49.7,30.09,North,0,0.0,0.0,48,0.00,,,0.00,WUHU216HW,2013-10-12 16:01:00,
2013-10-12 12:02:00,71.3,50.0,30.09,North,0,0.0,0.0,47,0.00,,,0.00,WUHU216HW,2013-10-12 16:02:00,
2013-10-12 12:03:00,71.6,50.2,30.09,North,0,0.0,0.0,47,0.00,,,0.00,WUHU216HW,2013-10-12 16:03:00,
2013-10-12 12:04:00,72.0,50.6,30.09,North,0,0.0,0.0,47,0.00,,,0.00,WUHU216HW,2013-10-12 16:04:00,
2013-10-12 12:05:00,72.4,50.3,30.09,North,0,0.0,0.0,46,0.00,,,0.00,WUHU216HW,2013-10-12 16:05:00,
2013-10-12 12:06:00,71.6,50.2,30.09,North,0,0.0,0.0,47,0.00,,,0.00,WUHU216HW,2013-10-12 16:06:00,
2013-10-12 12:07:00,72.4,50.9,30.09,North,0,0.0,0.0,47,0.00,,,0.00,WUHU216HW,2013-10-12 16:07:00,
2013-10-12 12:08:00,72.0,50.0,30.09,North,0,0.0,0.0,46,0.00,,,0.00,WUHU216HW,2013-10-12 16:08:00,
2013-10-12 12:09:00,72.2,50.8,30.09,North,0,0.0,0.0,47,0.00,,,0.00,WUHU216HW,2013-10-12 16:09:00,
2013-10-12 12:10:00,72.2,50.8,30.09,North,0,0.0,0.0,47,0.00,,,0.00,WUHU216HW,2013-10-12 16:10:00,
2013-10-12 12:11:00,72.4,51.5,30.09,North,0,0.0,0.0,48,0.00,,,0.00,WUHU216HW,2013-10-12 16:11:00,
2013-10-12 12:12:00,72.7,51.9,30.09,North,0,0.0,0.0,48,0.00,,,0.00,WUHU216HW,2013-10-12 16:12:00,
2013-10-12 12:13:00,72.9,51.9,30.09,North,0,0.0,0.0,48,0.00,,,0.00,WUHU216HW,2013-10-12 16:13:00,
2013-10-12 12:14:00,73.1,52.1,30.08,North,0,0.0,0.0,48,0.00,,,0.00,WUHU216HW,2013-10-12 16:14:00,
2013-10-12 12:15:00,73.3,51.7,30.09,North,0,0.0,0.0,47,0.00,,,0.00,WUHU216HW,2013-10-12 16:15:00,
2013-10-12 12:16:00,73.4,51.8,30.09,North,0,0.0,0.0,47,0.00,,,0.00,WUHU216HW,2013-10-12 16:16:00,
2013-10-12 12:17:00,73.4,51.3,30.09,North,0,0.0,0.0,46,0.00,,,0.00,WUHU216HW,2013-10-12 16:17:00,
2013-10-12 12:18:00,73.8,52.2,30.09,North,0,0.0,0.0,47,0.00,,,0.00,WUHU216HW,2013-10-12 16:18:00,
2013-10-12 12:19:00,74.2,53.2,30.09,North,0,0.0,0.0,48,0.00,,,0.00,WUHU216HW,2013-10-12 16:19:00,
2013-10-12 12:20:00,74.3,53.4,30.09,North,0,0.0,0.0,48,0.00,,,0.00,WUHU216HW,2013-10-12 16:20:00,
2013-10-12 12:21:00,74.9,53.8,30.08,North,0,0.0,0.0,48,0.00,,,0.00,WUHU216HW,2013-10-12 16:21:00,
2013-10-12 12:22:00,75.2,54.2,30.09,North,0,0.0,0.0,48,0.00,,,0.00,WUHU216HW,2013-10-12 16:22:00,
2013-10-12 12:23:00,75.6,52.1,30.08,North,0,0.0,0.0,44,0.00,,,0.00,WUHU216HW,2013-10-12 16:23:00,
2013-10-12 12:24:00,76.0,53.6,30.09,North,0,0.0,0.0,46,0.00,,,0.00,WUHU216HW,2013-10-12 16:24:00,
2013-10-12 12:25:00,76.3,54.0,30.09,North,0,0.0,0.0,46,0.00,,,0.00,WUHU216HW,2013-10-12 16:25:00,
2013-10-12 12:26:00,76.7,54.9,30.09,North,0,0.0,0.0,47,0.00,,,0.00,WUHU216HW,2013-10-12 16:26:00,
2013-10-12 12:27:00,77.4,54.4,30.08,North,0,0.0,0.0,45,0.00,,,0.00,WUHU216HW,2013-10-12 16:27:00,
2013-10-12 12:28:00,78.1,55.6,30.09,North,0,0.0,0.0,46,0.00,,,0.00,WUHU216HW,2013-10-12 16:28:00,
2013-10-12 12:29:00,78.3,55.2,30.09,North,0,0.0,0.0,45,0.00,,,0.00,WUHU216HW,2013-10-12 16:29:00,
2013-10-12 12:30:00,78.7,56.1,30.09,North,0,0.0,0.0,46,0.00,,,0.00,WUHU216HW,2013-10-12 16:30:00,
2013-10-12 12:31:00,79.0,55.2,30.09,North,0,0.0,0.0,44,0.00,,,0.00,WUHU216HW,2013-10-12 16:31:00,
2013-10-12 12:32:00,79.4,56.1,30.09,North,0,0.0,0.0,45,0.00,,,0.00,WUHU216HW,2013-10-12 16:32:00,
2013-10-12 12:33:00,79.6,55.6,30.09,North,0,0.0,0.0,44,0.00,,,0.00,WUHU216HW,2013-10-12 16:33:00,
2013-10-12 12:34:00,79.4,55.5,30.09,North,0,0.0,0.0,44,0.00,,,0.00,WUHU216HW,2013-10-12 16:34:00,
2013-10-12 12:35:00,79.4,55.5,30.09,North,0,0.0,0.0,44,0.00,,,0.00,WUHU216HW,2013-10-12 16:35:00,
2013-10-12 12:36:00,79.4,56.1,30.08,North,0,0.0,0.0,45,0.00,,,0.00,WUHU216HW,2013-10-12 16:36:00,
2013-10-12 12:37:00,79.6,55.6,30.08,North,0,0.0,0.0,44,0.00,,,0.00,WUHU216HW,2013-10-12 16:37:00,
2013-10-12 12:38:00,79.6,55.6,30.08,North,0,0.0,0.0,44,0.00,,,0.00,WUHU216HW,2013-10-12 16:38:00,
2013-10-12 12:39:00,79.4,54.9,30.08,North,0,0.0,0.0,43,0.00,,,0.00,WUHU216HW,2013-10-12 16:39:00,
2013-10-12 12:40:00,79.4,55.5,30.08,North,0,0.0,0.0,44,0.00,,,0.00,WUHU216HW,2013-10-12 16:40:00,
2013-10-12 12:41:00,79.2,55.4,30.09,North,0,0.0,0.0,44,0.00,,,0.00,WUHU216HW,2013-10-12 16:41:00,
2013-10-12 12:42:00,79.2,56.0,30.08,North,0,0.0,0.0,45,0.00,,,0.00,WUHU216HW,2013-10-12 16:42:00,
2013-10-12 12:43:00,79.4,56.1,30.08,North,0,0.0,0.0,45,0.00,,,0.00,WUHU216HW,2013-10-12 16:43:00,
2013-10-12 12:44:00,79.4,56.1,30.08,North,0,0.0,0.0,45,0.00,,,0.00,WUHU216HW,2013-10-12 16:44:00,
2013-10-12 12:45:00,79.2,53.5,30.09,North,0,0.0,0.0,41,0.00,,,0.00,WUHU216HW,2013-10-12 16:45:00,
2013-10-12 12:46:00,79.2,54.1,30.08,North,0,0.0,0.0,42,0.00,,,0.00,WUHU216HW,2013-10-12 16:46:00,
2013-10-12 12:47:00,79.2,54.7,30.08,North,0,0.0,0.0,43,0.00,,,0.00,WUHU216HW,2013-10-12 16:47:00,
2013-10-12 12:48:00,79.2,52.1,30.08,North,0,0.0,0.0,39,0.00,,,0.00,WUHU216HW,2013-10-12 16:48:00,
2013-10-12 12:49:00,79.0,53.9,30.08,North,0,0.0,0.0,42,0.00,,,0.00,WUHU216HW,2013-10-12 16:49:00,
2013-10-12 12:50:00,78.8,52.6,30.08,North,0,0.0,0.0,40,0.00,,,0.00,WUHU216HW,2013-10-12 16:50:00,
2013-10-12 12:51:00,78.8,53.8,30.08,North,0,0.0,0.0,42,0.00,,,0.00,WUHU216HW,2013-10-12 16:51:00,
2013-10-12 12:52:00,78.8,55.0,30.08,North,0,0.0,0.0,44,0.00,,,0.00,WUHU216HW,2013-10-12 16:52:00,
2013-10-12 12:53:00,78.8,53.2,30.08,North,0,0.0,0.0,41,0.00,,,0.00,WUHU216HW,2013-10-12 16:53:00,
2013-10-12 12:54:00,78.8,54.4,30.08,North,0,0.0,0.0,43,0.00,,,0.00,WUHU216HW,2013-10-12 16:54:00,
2013-10-12 12:55:00,78.8,55.0,30.08,North,0,0.0,0.0,44,0.00,,,0.00,WUHU216HW,2013-10-12 16:55:00,
2013-10-12 12:56:00,78.8,53.8,30.08,North,0,0.0,0.0,42,0.00,,,0.00,WUHU216HW,2013-10-12 16:56:00,
2013-10-12 12:57:00,78.8,53.8,30.08,North,0,0.0,0.0,42,0.00,,,0.00,WUHU216HW,2013-10-12 16:57:00,
2013-10-12 12:58:00,78.8,54.4,30.08,North,0,0.0,0.0,43,0.00,,,0.00,WUHU216HW,2013-10-12 16:58:00,
2013-10-12 12:59:00,79.0,55.2,30.08,North,0,0.0,0.0,44,0.00,,,0.00,WUHU216HW,2013-10-12 16:59:00,
2013-10-12 13:00:00,79.2,55.4,30.08,North,0,0.0,0.0,44,0.00,,,0.00,WUHU216HW,2013-10-12 17:00:00,
2013-10-12 13:01:00,79.4,54.3,30.08,North,0,0.0,0.0,42,0.00,,,0.00,WUHU216HW,2013-10-12 17:01:00,
2013-10-12 13:02:00,79.6,55.1,30.08,North,0,0.0,0.0,43,0.00,,,0.00,WUHU216HW,2013-10-12 17:02:00,
2013-10-12 13:03:00,79.7,54.0,30.08,North,0,0.0,0.0,41,0.00,,,0.00,WUHU216HW,2013-10-12 17:03:00,
2013-10-12 13:04:00,79.7,54.0,30.08,North,0,0.0,0.0,41,0.00,,,0.00,WUHU216HW,2013-10-12 17:04:00,
2013-10-12 13:05:00,79.6,53.2,30.08,North,0,0.0,0.0,40,0.00,,,0.00,WUHU216HW,2013-10-12 17:05:00,
2013-10-12 13:06:00,79.4,54.3,30.08,North,0,0.0,0.0,42,0.00,,,0.00,WUHU216HW,2013-10-12 17:06:00,
2013-10-12 13:07:00,79.4,54.3,30.07,North,0,0.0,0.0,42,0.00,,,0.00,WUHU216HW,2013-10-12 17:07:00,
2013-10-12 13:08:00,79.0,53.9,30.08,North,0,0.0,0.0,42,0.00,,,0.00,WUHU216HW,2013-10-12 17:08:00,
2013-10-12 13:09:00,78.8,53.8,30.08,North,0,0.0,0.0,42,0.00,,,0.00,WUHU216HW,2013-10-12 17:09:00,
2013-10-12 13:10:00,78.8,53.2,30.07,North,0,0.0,0.0,41,0.00,,,0.00,WUHU216HW,2013-10-12 17:10:00,
2013-10-12 13:11:00,78.8,52.6,30.07,North,0,0.0,0.0,40,0.00,,,0.00,WUHU216HW,2013-10-12 17:11:00,
2013-10-12 13:12:00,78.8,53.8,30.08,North,0,0.0,0.0,42,0.00,,,0.00,WUHU216HW,2013-10-12 17:12:00,
2013-10-12 13:13:00,79.2,52.9,30.07,North,0,0.0,0.0,40,0.00,,,0.00,WUHU216HW,2013-10-12 17:13:00,
2013-10-12 13:14:00,79.2,53.5,30.07,North,0,0.0,0.0,41,0.00,,,0.00,WUHU216HW,2013-10-12 17:14:00,
2013-10-12 13:15:00,79.2,53.5,30.07,North,0,0.0,0.0,41,0.00,,,0.00,WUHU216HW,2013-10-12 17:15:00,
2013-10-12 13:16:00,79.2,54.1,30.07,North,0,0.0,0.0,42,0.00,,,0.00,WUHU216HW,2013-10-12 17:16:00,
2013-10-12 13:17:00,79.4,54.9,30.07,North,0,0.0,0.0,43,0.00,,,0.00,WUHU216HW,2013-10-12 17:17:00,
2013-10-12 13:18:00,79.4,54.3,30.07,North,0,0.0,0.0,42,0.00,,,0.00,WUHU216HW,2013-10-12 17:18:00,
2013-10-12 13:19:00,79.6,54.5,30.07,North,0,0.0,0.0,42,0.00,,,0.00,WUHU216HW,2013-10-12 17:19:00,
2013-10-12 13:20:00,79.7,54.6,30.07,North,0,0.0,0.0,42,0.00,,,0.00,WUHU216HW,2013-10-12 17:20:00,
2013-10-12 13:21:00,79.7,54.6,30.07,North,0,0.0,0.0,42,0.00,,,0.00,WUHU216HW,2013-10-12 17:21:00,
2013-10-12 13:22:00,80.1,54.9,30.07,North,0,0.0,0.0,42,0.00,,,0.00,WUHU216HW,2013-10-12 17:22:00,
2013-10-12 13:23:00,80.3,54.5,30.07,North,0,0.0,0.0,41,0.00,,,0.00,WUHU216HW,2013-10-12 17:23:00,
2013-10-12 13:24:00,80.3,54.5,30.07,North,0,0.0,0.0,41,0.00,,,0.00,WUHU216HW,2013-10-12 17:24:00,
2013-10-12 13:25:00,80.3,54.5,30.07,North,0,0.0,0.0,41,0.00,,,0.00,WUHU216HW,2013-10-12 17:25:00,
2013-10-12 13:26:00,80.3,54.5,30.07,North,0,0.0,0.0,41,0.00,,,0.00,WUHU216HW,2013-10-12 17:26:00,
2013-10-12 13:27:00,80.3,53.8,30.07,North,0,0.0,0.0,40,0.00,,,0.00,WUHU216HW,2013-10-12 17:27:00,
2013-10-12 13:28:00,80.3,53.8,30.07,North,0,0.0,0.0,40,0.00,,,0.00,WUHU216HW,2013-10-12 17:28:00,
2013-10-12 13:29:00,80.1,52.9,30.07,North,0,0.0,0.0,39,0.00,,,0.00,WUHU216HW,2013-10-12 17:29:00,
2013-10-12 13:30:00,80.1,53.7,30.07,North,0,0.0,0.0,40,0.00,,,0.00,WUHU216HW,2013-10-12 17:30:00,
2013-10-12 13:31:00,79.9,51.2,30.07,North,0,0.0,0.0,37,0.00,,,0.00,WUHU216HW,2013-10-12 17:31:00,
2013-10-12 13:32:00,79.7,53.4,30.07,North,0,0.0,0.0,40,0.00,,,0.00,WUHU216HW,2013-10-12 17:32:00,
2013-10-12 13:33:00,79.9,54.2,30.07,North,0,0.0,0.0,41,0.00,,,0.00,WUHU216HW,2013-10-12 17:33:00,
2013-10-12 13:34:00,79.9,54.7,30.07,North,0,0.0,0.0,42,0.00,,,0.00,WUHU216HW,2013-10-12 17:34:00,
2013-10-12 13:35:00,80.1,52.9,30.06,North,0,0.0,0.0,39,0.00,,,0.00,WUHU216HW,2013-10-12 17:35:00,
2013-10-12 13:36:00,80.3,54.5,30.07,North,0,0.0,0.0,41,0.00,,,0.00,WUHU216HW,2013-10-12 17:36:00,
2013-10-12 13:37:00,80.3,54.5,30.07,North,0,0.0,0.0,41,0.00,,,0.00,WUHU216HW,2013-10-12 17:37:00,
2013-10-12 13:38:00,80.1,53.7,30.07,North,0,0.0,0.0,40,0.00,,,0.00,WUHU216HW,2013-10-12 17:38:00,
2013-10-12 13:39:00,80.3,54.5,30.07,North,0,0.0,0.0,41,0.00,,,0.00,WUHU216HW,2013-10-12 17:39:00,
2013-10-12 13:40:00,80.1,54.3,30.07,North,0,0.0,0.0,41,0.00,,,0.00,WUHU216HW,2013-10-12 17:40:00,
2013-10-12 13:41:00,80.1,54.3,30.07,North,0,0.0,0.0,41,0.00,,,0.00,WUHU216HW,2013-10-12 17:41:00,
2013-10-12 13:42:00,80.3,53.8,30.07,North,0,0.0,0.0,40,0.00,,,0.00,WUHU216HW,2013-10-12 17:42:00,
2013-10-12 13:43:00,80.3,53.8,30.07,North,0,0.0,0.0,40,0.00,,,0.00,WUHU216HW,2013-10-12 17:43:00,
2013-10-12 13:44:00,80.3,54.5,30.07,North,0,0.0,0.0,41,0.00,,,0.00,WUHU216HW,2013-10-12 17:44:00,
2013-10-12 13:45:00,80.5,54.6,30.07,North,0,0.0,0.0,41,0.00,,,0.00,WUHU216HW,2013-10-12 17:45:00,
2013-10-12 13:46:00,80.6,54.2,30.06,North,0,0.0,0.0,40,0.00,,,0.00,WUHU216HW,2013-10-12 17:46:00,
2013-10-12 13:47:00,80.6,54.2,30.07,North,0,0.0,0.0,40,0.00,,,0.00,WUHU216HW,2013-10-12 17:47:00,
2013-10-12 13:48:00,80.8,54.4,30.07,North,0,0.0,0.0,40,0.00,,,0.00,WUHU216HW,2013-10-12 17:48:00,
2013-10-12 13:49:00,81.0,54.6,30.07,North,0,0.0,0.0,40,0.00,,,0.00,WUHU216HW,2013-10-12 17:49:00,
2013-10-12 13:50:00,81.0,54.6,30.07,North,0,0.0,0.0,40,0.00,,,0.00,WUHU216HW,2013-10-12 17:50:00,
2013-10-12 13:51:00,81.0,53.7,30.06,North,0,0.0,0.0,39,0.00,,,0.00,WUHU216HW,2013-10-12 17:51:00,
2013-10-12 13:52:00,81.2,53.1,30.06,North,0,0.0,0.0,38,0.00,,,0.00,WUHU216HW,2013-10-12 17:52:00,
2013-10-12 13:53:00,81.2,53.1,30.06,North,0,0.0,0.0,38,0.00,,,0.00,WUHU216HW,2013-10-12 17:53:00,
2013-10-12 13:54:00,81.2,50.8,30.06,North,0,0.0,0.0,35,0.00,,,0.00,WUHU216HW,2013-10-12 17:54:00,
2013-10-12 13:55:00,81.2,53.9,30.06,North,0,0.0,0.0,39,0.00,,,0.00,WUHU216HW,2013-10-12 17:55:00,
2013-10-12 13:56:00,81.4,54.1,30.06,North,0,0.0,0.0,39,0.00,,,0.00,WUHU216HW,2013-10-12 17:56:00,
2013-10-12 13:57:00,81.5,54.2,30.06,North,0,0.0,0.0,39,0.00,,,0.00,WUHU216HW,2013-10-12 17:57:00,
2013-10-12 13:58:00,81.7,55.2,30.06,North,0,0.0,0.0,40,0.00,,,0.00,WUHU216HW,2013-10-12 17:58:00,
2013-10-12 13:59:00,81.9,54.6,30.06,North,0,0.0,0.0,39,0.00,,,0.00,WUHU216HW,2013-10-12 17:59:00,
2013-10-12 14:00:00,82.1,53.9,30.06,North,0,0.0,0.0,38,0.00,,,0.00,WUHU216HW,2013-10-12 18:00:00,
2013-10-12 14:01:00,82.1,53.1,30.06,North,0,0.0,0.0,37,0.00,,,0.00,WUHU216HW,2013-10-12 18:01:00,
2013-10-12 14:02:00,81.9,55.4,30.06,North,0,0.0,0.0,40,0.00,,,0.00,WUHU216HW,2013-10-12 18:02:00,
2013-10-12 14:03:00,81.9,55.4,30.06,North,0,0.0,0.0,40,0.00,,,0.00,WUHU216HW,2013-10-12 18:03:00,
2013-10-12 14:04:00,82.1,53.9,30.06,North,0,0.0,0.0,38,0.00,,,0.00,WUHU216HW,2013-10-12 18:04:00,
2013-10-12 14:05:00,82.1,55.4,30.06,North,0,0.0,0.0,40,0.00,,,0.00,WUHU216HW,2013-10-12 18:05:00,
2013-10-12 14:06:00,82.3,56.3,30.06,North,0,0.0,0.0,41,0.00,,,0.00,WUHU216HW,2013-10-12 18:06:00,
2013-10-12 14:07:00,82.3,54.8,30.06,North,0,0.0,0.0,39,0.00,,,0.00,WUHU216HW,2013-10-12 18:07:00,
2013-10-12 14:08:00,82.4,55.8,30.06,North,0,0.0,0.0,40,0.00,,,0.00,WUHU216HW,2013-10-12 18:08:00,
2013-10-12 14:09:00,82.8,55.4,30.06,North,0,0.0,0.0,39,0.00,,,0.00,WUHU216HW,2013-10-12 18:09:00,
2013-10-12 14:10:00,82.8,52.9,30.06,North,0,0.0,0.0,36,0.00,,,0.00,WUHU216HW,2013-10-12 18:10:00,
2013-10-12 14:11:00,82.8,53.7,30.06,North,0,0.0,0.0,37,0.00,,,0.00,WUHU216HW,2013-10-12 18:11:00,
2013-10-12 14:12:00,82.6,54.4,30.06,North,0,0.0,0.0,38,0.00,,,0.00,WUHU216HW,2013-10-12 18:12:00,
2013-10-12 14:13:00,82.8,55.4,30.06,North,0,0.0,0.0,39,0.00,,,0.00,WUHU216HW,2013-10-12 18:13:00,
2013-10-12 14:14:00,82.8,53.7,30.06,North,0,0.0,0.0,37,0.00,,,0.00,WUHU216HW,2013-10-12 18:14:00,
2013-10-12 14:15:00,82.8,54.5,30.06,North,0,0.0,0.0,38,0.00,,,0.00,WUHU216HW,2013-10-12 18:15:00,
2013-10-12 14:16:00,83.0,55.5,30.06,North,0,0.0,0.0,39,0.00,,,0.00,WUHU216HW,2013-10-12 18:16:00,
2013-10-12 14:17:00,83.3,56.6,30.06,North,0,0.0,0.0,40,0.00,,,0.00,WUHU216HW,2013-10-12 18:17:00,
2013-10-12 14:18:00,83.5,56.8,30.06,North,0,0.0,0.0,40,0.00,,,0.00,WUHU216HW,2013-10-12 18:18:00,
2013-10-12 14:19:00,83.7,57.6,30.06,North,0,0.0,0.0,41,0.00,,,0.00,WUHU216HW,2013-10-12 18:19:00,
2013-10-12 14:20:00,83.9,57.1,30.06,North,0,0.0,0.0,40,0.00,,,0.00,WUHU216HW,2013-10-12 18:20:00,
2013-10-12 14:21:00,84.2,56.6,30.06,North,0,0.0,0.0,39,0.00,,,0.00,WUHU216HW,2013-10-12 18:21:00,
2013-10-12 14:22:00,84.2,55.1,30.06,North,0,0.0,0.0,37,0.00,,,0.00,WUHU216HW,2013-10-12 18:22:00,
2013-10-12 14:23:00,84.2,56.6,30.06,North,0,0.0,0.0,39,0.00,,,0.00,WUHU216HW,2013-10-12 18:23:00,
2013-10-12 14:24:00,84.1,54.9,30.06,North,0,0.0,0.0,37,0.00,,,0.00,WUHU216HW,2013-10-12 18:24:00,
2013-10-12 14:25:00,83.9,54.7,30.06,North,0,0.0,0.0,37,0.00,,,0.00,WUHU216HW,2013-10-12 18:25:00,
2013-10-12 14:26:00,83.5,51.2,30.06,North,0,0.0,0.0,33,0.00,,,0.00,WUHU216HW,2013-10-12 18:26:00,
2013-10-12 14:27:00,83.2,51.7,30.06,North,0,0.0,0.0,34,0.00,,,0.00,WUHU216HW,2013-10-12 18:27:00,
2013-10-12 14:28:00,82.8,53.7,30.06,North,0,0.0,0.0,37,0.00,,,0.00,WUHU216HW,2013-10-12 18:28:00,
2013-10-12 14:29:00,83.0,55.5,30.06,North,0,0.0,0.0,39,0.00,,,0.00,WUHU216HW,2013-10-12 18:29:00,
2013-10-12 14:30:00,83.3,56.6,30.06,North,0,0.0,0.0,40,0.00,,,0.00,WUHU216HW,2013-10-12 18:30:00,
2013-10-12 14:31:00,83.7,56.2,30.06,North,0,0.0,0.0,39,0.00,,,0.00,WUHU216HW,2013-10-12 18:31:00,
2013-10-12 14:32:00,84.1,56.4,30.06,North,0,0.0,0.0,39,0.00,,,0.00,WUHU216HW,2013-10-12 18:32:00,
2013-10-12 14:33:00,84.4,53.7,30.06,North,0,0.0,0.0,35,0.00,,,0.00,WUHU216HW,2013-10-12 18:33:00,
2013-10-12 14:34:00,84.8,55.5,30.06,North,0,0.0,0.0,37,0.00,,,0.00,WUHU216HW,2013-10-12 18:34:00,
2013-10-12 14:35:00,84.8,55.5,30.06,North,0,0.0,0.0,37,0.00,,,0.00,WUHU216HW,2013-10-12 18:35:00,
2013-10-12 14:36:00,84.8,55.5,30.06,North,0,0.0,0.0,37,0.00,,,0.00,WUHU216HW,2013-10-12 18:36:00,
2013-10-12 14:37:00,84.8,53.2,30.06,North,0,0.0,0.0,34,0.00,,,0.00,WUHU216HW,2013-10-12 18:37:00,
2013-10-12 14:38:00,84.6,55.4,30.06,North,0,0.0,0.0,37,0.00,,,0.00,WUHU216HW,2013-10-12 18:38:00,
2013-10-12 14:39:00,84.6,56.2,30.06,North,0,0.0,0.0,38,0.00,,,0.00,WUHU216HW,2013-10-12 18:39:00,
2013-10-12 14:40:00,84.8,54.7,30.06,North,0,0.0,0.0,36,0.00,,,0.00,WUHU216HW,2013-10-12 18:40:00,
2013-10-12 14:41:00,84.8,56.4,30.06,North,0,0.0,0.0,38,0.00,,,0.00,WUHU216HW,2013-10-12 18:41:00,
2013-10-12 14:42:00,85.0,57.2,30.06,North,0,0.0,0.0,39,0.00,,,0.00,WUHU216HW,2013-10-12 18:42:00,
2013-10-12 14:43:00,85.1,56.6,30.06,North,0,0.0,0.0,38,0.00,,,0.00,WUHU216HW,2013-10-12 18:43:00,
2013-10-12 14:44:00,85.3,56.0,30.06,North,0,0.0,0.0,37,0.00,,,0.00,WUHU216HW,2013-10-12 18:44:00,
2013-10-12 14:45:00,85.3,56.0,30.06,North,0,0.0,0.0,37,0.00,,,0.00,WUHU216HW,2013-10-12 18:45:00,
2013-10-12 14:46:00,85.3,56.8,30.06,North,0,0.0,0.0,38,0.00,,,0.00,WUHU216HW,2013-10-12 18:46:00,
2013-10-12 14:47:00,85.3,56.0,30.06,North,0,0.0,0.0,37,0.00,,,0.00,WUHU216HW,2013-10-12 18:47:00,
2013-10-12 14:48:00,85.3,56.8,30.06,North,0,0.0,0.0,38,0.00,,,0.00,WUHU216HW,2013-10-12 18:48:00,
2013-10-12 14:49:00,85.3,57.6,30.06,North,0,0.0,0.0,39,0.00,,,0.00,WUHU216HW,2013-10-12 18:49:00,
2013-10-12 14:50:00,85.5,56.2,30.06,North,0,0.0,0.0,37,0.00,,,0.00,WUHU216HW,2013-10-12 18:50:00,
2013-10-12 14:51:00,85.5,56.2,30.06,North,0,0.0,0.0,37,0.00,,,0.00,WUHU216HW,2013-10-12 18:51:00,
2013-10-12 14:52:00,85.5,57.0,30.06,North,0,0.0,0.0,38,0.00,,,0.00,WUHU216HW,2013-10-12 18:52:00,
2013-10-12 14:53:00,85.3,55.3,30.06,North,0,0.0,0.0,36,0.00,,,0.00,WUHU216HW,2013-10-12 18:53:00,
2013-10-12 14:54:00,85.3,55.3,30.06,North,0,0.0,0.0,36,0.00,,,0.00,WUHU216HW,2013-10-12 18:54:00,
2013-10-12 14:55:00,85.1,56.6,30.06,North,0,0.0,0.0,38,0.00,,,0.00,WUHU216HW,2013-10-12 18:55:00,
2013-10-12 14:56:00,85.0,55.7,30.06,North,0,0.0,0.0,37,0.00,,,0.00,WUHU216HW,2013-10-12 18:56:00,
2013-10-12 14:57:00,84.8,56.4,30.06,North,0,0.0,0.0,38,0.00,,,0.00,WUHU216HW,2013-10-12 18:57:00,
2013-10-12 14:58:00,84.8,56.4,30.06,North,0,0.0,0.0,38,0.00,,,0.00,WUHU216HW,2013-10-12 18:58:00,
2013-10-12 14:59:00,84.6,57.0,30.06,North,0,0.0,0.0,39,0.00,,,0.00,WUHU216HW,2013-10-12 18:59:00,
2013-10-12 15:00:00,84.8,57.2,30.06,North,0,0.0,0.0,39,0.00,,,0.00,WUHU216HW,2013-10-12 19:00:00,
2013-10-12 15:01:00,84.8,57.2,30.06,North,0,0.0,0.0,39,0.00,,,0.00,WUHU216HW,2013-10-12 19:01:00,
2013-10-12 15:02:00,85.0,57.2,30.06,North,0,0.0,0.0,39,0.00,,,0.00,WUHU216HW,2013-10-12 19:02:00,
2013-10-12 15:03:00,85.0,57.2,30.06,North,0,0.0,0.0,39,0.00,,,0.00,WUHU216HW,2013-10-12 19:03:00,
2013-10-12 15:04:00,85.0,57.2,30.06,North,0,0.0,0.0,39,0.00,,,0.00,WUHU216HW,2013-10-12 19:04:00,
2013-10-12 15:05:00,85.0,57.2,30.06,North,0,0.0,0.0,39,0.00,,,0.00,WUHU216HW,2013-10-12 19:05:00,
2013-10-12 15:06:00,85.0,57.2,30.06,North,0,0.0,0.0,39,0.00,,,0.00,WUHU216HW,2013-10-12 19:06:00,
2013-10-12 15:07:00,85.1,57.4,30.06,North,0,0.0,0.0,39,0.00,,,0.00,WUHU216HW,2013-10-12 19:07:00,
2013-10-12 15:08:00,85.1,57.4,30.06,North,0,0.0,0.0,39,0.00,,,0.00,WUHU216HW,2013-10-12 19:08:00,
2013-10-12 15:09:00,85.1,57.4,30.06,North,0,0.0,0.0,39,0.00,,,0.00,WUHU216HW,2013-10-12 19:09:00,
2013-10-12 15:10:00,85.0,57.2,30.06,North,0,0.0,0.0,39,0.00,,,0.00,WUHU216HW,2013-10-12 19:10:00,
2013-10-12 15:11:00,84.8,57.2,30.06,North,0,0.0,0.0,39,0.00,,,0.00,WUHU216HW,2013-10-12 19:11:00,
2013-10-12 15:12:00,84.8,57.2,30.06,North,0,0.0,0.0,39,0.00,,,0.00,WUHU216HW,2013-10-12 19:12:00,
2013-10-12 15:13:00,84.8,57.9,30.06,North,0,0.0,0.0,40,0.00,,,0.00,WUHU216HW,2013-10-12 19:13:00,
2013-10-12 15:14:00,84.8,57.9,30.06,North,0,0.0,0.0,40,0.00,,,0.00,WUHU216HW,2013-10-12 19:14:00,
2013-10-12 15:15:00,85.0,57.2,30.06,North,0,0.0,0.0,39,0.00,,,0.00,WUHU216HW,2013-10-12 19:15:00,
2013-10-12 15:16:00,85.0,58.1,30.05,North,0,0.0,0.0,40,0.00,,,0.00,WUHU216HW,2013-10-12 19:16:00,
2013-10-12 15:17:00,85.3,57.6,30.06,North,0,0.0,0.0,39,0.00,,,0.00,WUHU216HW,2013-10-12 19:17:00,
2013-10-12 15:18:00,85.3,58.4,30.06,North,0,0.0,0.0,40,0.00,,,0.00,WUHU216HW,2013-10-12 19:18:00,
2013-10-12 15:19:00,85.5,58.6,30.06,North,0,0.0,0.0,40,0.00,,,0.00,WUHU216HW,2013-10-12 19:19:00,
2013-10-12 15:20:00,85.9,58.9,30.06,North,0,0.0,0.0,40,0.00,,,0.00,WUHU216HW,2013-10-12 19:20:00,
2013-10-12 15:21:00,86.0,58.2,30.05,North,0,0.0,0.0,39,0.00,,,0.00,WUHU216HW,2013-10-12 19:21:00,
2013-10-12 15:22:00,86.0,57.4,30.06,North,0,0.0,0.0,38,0.00,,,0.00,WUHU216HW,2013-10-12 19:22:00,
2013-10-12 15:23:00,85.9,56.5,30.06,North,0,0.0,0.0,37,0.00,,,0.00,WUHU216HW,2013-10-12 19:23:00,
2013-10-12 15:24:00,85.7,57.2,30.06,North,0,0.0,0.0,38,0.00,,,0.00,WUHU216HW,2013-10-12 19:24:00,
2013-10-12 15:25:00,85.3,56.0,30.05,North,0,0.0,0.0,37,0.00,,,0.00,WUHU216HW,2013-10-12 19:25:00,
2013-10-12 15:26:00,85.3,56.8,30.05,North,0,0.0,0.0,38,0.00,,,0.00,WUHU216HW,2013-10-12 19:26:00,
2013-10-12 15:27:00,85.1,57.4,30.05,North,0,0.0,0.0,39,0.00,,,0.00,WUHU216HW,2013-10-12 19:27:00,
2013-10-12 15:28:00,85.1,56.6,30.05,North,0,0.0,0.0,38,0.00,,,0.00,WUHU216HW,2013-10-12 19:28:00,
2013-10-12 15:29:00,85.0,56.5,30.05,North,0,0.0,0.0,38,0.00,,,0.00,WUHU216HW,2013-10-12 19:29:00,
2013-10-12 15:30:00,84.8,56.4,30.05,North,0,0.0,0.0,38,0.00,,,0.00,WUHU216HW,2013-10-12 19:30:00,
2013-10-12 15:31:00,84.6,57.0,30.06,North,0,0.0,0.0,39,0.00,,,0.00,WUHU216HW,2013-10-12 19:31:00,
2013-10-12 15:32:00,84.4,56.8,30.05,North,0,0.0,0.0,39,0.00,,,0.00,WUHU216HW,2013-10-12 19:32:00,
2013-10-12 15:33:00,84.2,56.6,30.05,North,0,0.0,0.0,39,0.00,,,0.00,WUHU216HW,2013-10-12 19:33:00,
2013-10-12 15:34:00,84.2,56.6,30.05,North,0,0.0,0.0,39,0.00,,,0.00,WUHU216HW,2013-10-12 19:34:00,
2013-10-12 15:35:00,84.2,56.6,30.05,North,0,0.0,0.0,39,0.00,,,0.00,WUHU216HW,2013-10-12 19:35:00,
2013-10-12 15:36:00,84.2,56.6,30.05,North,0,0.0,0.0,39,0.00,,,0.00,WUHU216HW,2013-10-12 19:36:00,
2013-10-12 15:37:00,84.4,57.6,30.05,North,0,0.0,0.0,40,0.00,,,0.00,WUHU216HW,2013-10-12 19:37:00,
2013-10-12 15:38:00,84.6,57.0,30.05,North,0,0.0,0.0,39,0.00,,,0.00,WUHU216HW,2013-10-12 19:38:00,
2013-10-12 15:39:00,84.6,57.0,30.05,North,0,0.0,0.0,39,0.00,,,0.00,WUHU216HW,2013-10-12 19:39:00,
2013-10-12 15:40:00,84.6,57.0,30.05,North,0,0.0,0.0,39,0.00,,,0.00,WUHU216HW,2013-10-12 19:40:00,
2013-10-12 15:41:00,84.4,56.8,30.05,North,0,0.0,0.0,39,0.00,,,0.00,WUHU216HW,2013-10-12 19:41:00,
2013-10-12 15:42:00,84.4,56.8,30.05,North,0,0.0,0.0,39,0.00,,,0.00,WUHU216HW,2013-10-12 19:42:00,
2013-10-12 15:43:00,84.2,55.8,30.05,North,0,0.0,0.0,38,0.00,,,0.00,WUHU216HW,2013-10-12 19:43:00,
2013-10-12 15:44:00,84.1,56.4,30.05,North,0,0.0,0.0,39,0.00,,,0.00,WUHU216HW,2013-10-12 19:44:00,
2013-10-12 15:45:00,83.9,57.1,30.05,North,0,0.0,0.0,40,0.00,,,0.00,WUHU216HW,2013-10-12 19:45:00,
2013-10-12 15:46:00,84.1,57.2,30.05,North,0,0.0,0.0,40,0.00,,,0.00,WUHU216HW,2013-10-12 19:46:00,
2013-10-12 15:47:00,84.2,57.4,30.05,North,0,0.0,0.0,40,0.00,,,0.00,WUHU216HW,2013-10-12 19:47:00,
2013-10-12 15:48:00,84.4,57.6,30.05,North,0,0.0,0.0,40,0.00,,,0.00,WUHU216HW,2013-10-12 19:48:00,
2013-10-12 15:49:00,84.6,57.8,30.05,North,0,0.0,0.0,40,0.00,,,0.00,WUHU216HW,2013-10-12 19:49:00,
2013-10-12 15:50:00,84.6,57.8,30.05,North,0,0.0,0.0,40,0.00,,,0.00,WUHU216HW,2013-10-12 19:50:00,
2013-10-12 15:51:00,84.6,57.8,30.05,North,0,0.0,0.0,40,0.00,,,0.00,WUHU216HW,2013-10-12 19:51:00,
2013-10-12 15:52:00,84.6,57.0,30.05,North,0,0.0,0.0,39,0.00,,,0.00,WUHU216HW,2013-10-12 19:52:00,
2013-10-12 15:53:00,84.2,55.8,30.05,North,0,0.0,0.0,38,0.00,,,0.00,WUHU216HW,2013-10-12 19:53:00,
2013-10-12 15:54:00,84.1,55.7,30.05,North,0,0.0,0.0,38,0.00,,,0.00,WUHU216HW,2013-10-12 19:54:00,
2013-10-12 15:55:00,83.7,55.4,30.05,North,0,0.0,0.0,38,0.00,,,0.00,WUHU216HW,2013-10-12 19:55:00,
2013-10-12 15:56:00,83.5,56.0,30.05,North,0,0.0,0.0,39,0.00,,,0.00,WUHU216HW,2013-10-12 19:56:00,
2013-10-12 15:57:00,83.0,56.3,30.05,North,0,0.0,0.0,40,0.00,,,0.00,WUHU216HW,2013-10-12 19:57:00,
2013-10-12 15:58:00,82.6,56.0,30.05,North,0,0.0,0.0,40,0.00,,,0.00,WUHU216HW,2013-10-12 19:58:00,
2013-10-12 15:59:00,82.4,56.4,30.05,North,0,0.0,0.0,41,0.00,,,0.00,WUHU216HW,2013-10-12 19:59:00,
2013-10-12 16:00:00,82.4,56.4,30.05,North,0,0.0,0.0,41,0.00,,,0.00,WUHU216HW,2013-10-12 20:00:00,
2013-10-12 16:01:00,82.3,56.3,30.05,North,0,0.0,0.0,41,0.00,,,0.00,WUHU216HW,2013-10-12 20:01:00,
2013-10-12 16:02:00,82.3,56.3,30.05,North,0,0.0,0.0,41,0.00,,,0.00,WUHU216HW,2013-10-12 20:02:00,
2013-10-12 16:03:00,82.1,56.1,30.06,North,0,0.0,0.0,41,0.00,,,0.00,WUHU216HW,2013-10-12 20:03:00,
2013-10-12 16:04:00,81.9,55.4,30.05,North,0,0.0,0.0,40,0.00,,,0.00,WUHU216HW,2013-10-12 20:04:00,
2013-10-12 16:05:00,81.7,55.8,30.05,North,0,0.0,0.0,41,0.00,,,0.00,WUHU216HW,2013-10-12 20:05:00,
2013-10-12 16:06:00,81.4,55.4,30.05,North,0,0.0,0.0,41,0.00,,,0.00,WUHU216HW,2013-10-12 20:06:00,
2013-10-12 16:07:00,81.2,55.9,30.05,North,0,0.0,0.0,42,0.00,,,0.00,WUHU216HW,2013-10-12 20:07:00,
2013-10-12 16:08:00,80.6,55.5,30.05,North,0,0.0,0.0,42,0.00,,,0.00,WUHU216HW,2013-10-12 20:08:00,
2013-10-12 16:09:00,80.3,55.1,30.05,North,0,0.0,0.0,42,0.00,,,0.00,WUHU216HW,2013-10-12 20:09:00,
2013-10-12 16:10:00,79.9,54.7,30.05,North,0,0.0,0.0,42,0.00,,,0.00,WUHU216HW,2013-10-12 20:10:00,
2013-10-12 16:11:00,79.6,55.1,30.05,North,0,0.0,0.0,43,0.00,,,0.00,WUHU216HW,2013-10-12 20:11:00,
2013-10-12 16:12:00,79.2,54.7,30.05,North,0,0.0,0.0,43,0.00,,,0.00,WUHU216HW,2013-10-12 20:12:00,
2013-10-12 16:13:00,78.8,55.0,30.05,North,0,0.0,0.0,44,0.00,,,0.00,WUHU216HW,2013-10-12 20:13:00,
2013-10-12 16:14:00,78.7,54.8,30.05,North,0,0.0,0.0,44,0.00,,,0.00,WUHU216HW,2013-10-12 20:14:00,
2013-10-12 16:15:00,78.5,54.7,30.05,North,0,0.0,0.0,44,0.00,,,0.00,WUHU216HW,2013-10-12 20:15:00,
2013-10-12 16:16:00,78.1,54.4,30.05,North,0,0.0,0.0,44,0.00,,,0.00,WUHU216HW,2013-10-12 20:16:00,
2013-10-12 16:17:00,78.1,54.4,30.05,North,0,0.0,0.0,44,0.00,,,0.00,WUHU216HW,2013-10-12 20:17:00,
2013-10-12 16:18:00,78.1,55.0,30.05,North,0,0.0,0.0,45,0.00,,,0.00,WUHU216HW,2013-10-12 20:18:00,
2013-10-12 16:19:00,78.1,55.0,30.05,North,0,0.0,0.0,45,0.00,,,0.00,WUHU216HW,2013-10-12 20:19:00,
2013-10-12 16:20:00,78.5,55.3,30.05,North,0,0.0,0.0,45,0.00,,,0.00,WUHU216HW,2013-10-12 20:20:00,
2013-10-12 16:21:00,78.7,55.4,30.06,North,0,0.0,0.0,45,0.00,,,0.00,WUHU216HW,2013-10-12 20:21:00,
2013-10-12 16:22:00,78.8,55.6,30.05,North,0,0.0,0.0,45,0.00,,,0.00,WUHU216HW,2013-10-12 20:22:00,
2013-10-12 16:23:00,78.8,55.0,30.05,North,0,0.0,0.0,44,0.00,,,0.00,WUHU216HW,2013-10-12 20:23:00,
2013-10-12 16:24:00,79.0,55.2,30.05,North,0,0.0,0.0,44,0.00,,,0.00,WUHU216HW,2013-10-12 20:24:00,
2013-10-12 16:25:00,79.2,55.4,30.05,North,0,0.0,0.0,44,0.00,,,0.00,WUHU216HW,2013-10-12 20:25:00,
2013-10-12 16:26:00,79.4,55.5,30.05,North,0,0.0,0.0,44,0.00,,,0.00,WUHU216HW,2013-10-12 20:26:00,
2013-10-12 16:27:00,79.6,55.6,30.05,North,0,0.0,0.0,44,0.00,,,0.00,WUHU216HW,2013-10-12 20:27:00,
2013-10-12 16:28:00,79.6,55.6,30.05,North,0,0.0,0.0,44,0.00,,,0.00,WUHU216HW,2013-10-12 20:28:00,
2013-10-12 16:29:00,79.7,55.8,30.05,North,0,0.0,0.0,44,0.00,,,0.00,WUHU216HW,2013-10-12 20:29:00,
2013-10-12 16:30:00,79.9,56.0,30.05,North,0,0.0,0.0,44,0.00,,,0.00,WUHU216HW,2013-10-12 20:30:00,
2013-10-12 16:31:00,80.1,56.8,30.05,North,0,0.0,0.0,45,0.00,,,0.00,WUHU216HW,2013-10-12 20:31:00,
2013-10-12 16:32:00,80.1,56.2,30.05,North,0,0.0,0.0,44,0.00,,,0.00,WUHU216HW,2013-10-12 20:32:00,
2013-10-12 16:33:00,80.3,56.9,30.05,North,0,0.0,0.0,45,0.00,,,0.00,WUHU216HW,2013-10-12 20:33:00,
2013-10-12 16:34:00,80.3,56.4,30.05,North,0,0.0,0.0,44,0.00,,,0.00,WUHU216HW,2013-10-12 20:34:00,
2013-10-12 16:35:00,80.3,56.4,30.05,North,0,0.0,0.0,44,0.00,,,0.00,WUHU216HW,2013-10-12 20:35:00,
2013-10-12 16:36:00,80.5,56.4,30.05,North,0,0.0,0.0,44,0.00,,,0.00,WUHU216HW,2013-10-12 20:36:00,
2013-10-12 16:37:00,80.6,56.6,30.05,North,0,0.0,0.0,44,0.00,,,0.00,WUHU216HW,2013-10-12 20:37:00,
2013-10-12 16:38:00,80.6,56.6,30.05,North,0,0.0,0.0,44,0.00,,,0.00,WUHU216HW,2013-10-12 20:38:00,
2013-10-12 16:39:00,80.6,56.6,30.05,North,0,0.0,0.0,44,0.00,,,0.00,WUHU216HW,2013-10-12 20:39:00,
2013-10-12 16:40:00,80.8,56.8,30.05,North,0,0.0,0.0,44,0.00,,,0.00,WUHU216HW,2013-10-12 20:40:00,
2013-10-12 16:41:00,80.6,56.6,30.05,North,0,0.0,0.0,44,0.00,,,0.00,WUHU216HW,2013-10-12 20:41:00,
2013-10-12 16:42:00,80.6,56.6,30.05,North,0,0.0,0.0,44,0.00,,,0.00,WUHU216HW,2013-10-12 20:42:00,
2013-10-12 16:43:00,80.5,55.9,30.05,North,0,0.0,0.0,43,0.00,,,0.00,WUHU216HW,2013-10-12 20:43:00,
2013-10-12 16:44:00,80.3,56.4,30.05,North,0,0.0,0.0,44,0.00,,,0.00,WUHU216HW,2013-10-12 20:44:00,
2013-10-12 16:45:00,80.1,55.5,30.05,North,0,0.0,0.0,43,0.00,,,0.00,WUHU216HW,2013-10-12 20:45:00,
2013-10-12 16:46:00,79.9,56.0,30.05,North,0,0.0,0.0,44,0.00,,,0.00,WUHU216HW,2013-10-12 20:46:00,
2013-10-12 16:47:00,79.9,56.0,30.05,North,0,0.0,0.0,44,0.00,,,0.00,WUHU216HW,2013-10-12 20:47:00,
2013-10-12 16:48:00,79.9,56.0,30.05,North,0,0.0,0.0,44,0.00,,,0.00,WUHU216HW,2013-10-12 20:48:00,
2013-10-12 16:49:00,79.7,55.2,30.05,North,0,0.0,0.0,43,0.00,,,0.00,WUHU216HW,2013-10-12 20:49:00,
2013-10-12 16:50:00,79.7,55.8,30.05,North,0,0.0,0.0,44,0.00,,,0.00,WUHU216HW,2013-10-12 20:50:00,
2013-10-12 16:51:00,79.7,55.8,30.05,North,0,0.0,0.0,44,0.00,,,0.00,WUHU216HW,2013-10-12 20:51:00,
2013-10-12 16:52:00,79.6,55.6,30.05,North,0,0.0,0.0,44,0.00,,,0.00,WUHU216HW,2013-10-12 20:52:00,
2013-10-12 16:53:00,79.6,56.3,30.05,North,0,0.0,0.0,45,0.00,,,0.00,WUHU216HW,2013-10-12 20:53:00,
2013-10-12 16:54:00,79.4,56.1,30.05,North,0,0.0,0.0,45,0.00,,,0.00,WUHU216HW,2013-10-12 20:54:00,
2013-10-12 16:55:00,79.2,55.4,30.05,North,0,0.0,0.0,44,0.00,,,0.00,WUHU216HW,2013-10-12 20:55:00,
2013-10-12 16:56:00,78.8,55.6,30.05,North,0,0.0,0.0,45,0.00,,,0.00,WUHU216HW,2013-10-12 20:56:00,
2013-10-12 16:57:00,78.5,55.3,30.05,North,0,0.0,0.0,45,0.00,,,0.00,WUHU216HW,2013-10-12 20:57:00,
2013-10-12 16:58:00,78.1,55.0,30.05,North,0,0.0,0.0,45,0.00,,,0.00,WUHU216HW,2013-10-12 20:58:00,
2013-10-12 16:59:00,77.8,54.6,30.05,North,0,0.0,0.0,45,0.00,,,0.00,WUHU216HW,2013-10-12 20:59:00,
2013-10-12 17:00:00,77.2,54.2,30.05,North,0,0.0,0.0,45,0.00,,,0.00,WUHU216HW,2013-10-12 21:00:00,
2013-10-12 17:01:00,76.7,54.3,30.05,North,0,0.0,0.0,46,0.00,,,0.00,WUHU216HW,2013-10-12 21:01:00,
2013-10-12 17:02:00,76.1,53.8,30.05,North,0,0.0,0.0,46,0.00,,,0.00,WUHU216HW,2013-10-12 21:02:00,
2013-10-12 17:03:00,75.6,53.9,30.05,North,0,0.0,0.0,47,0.00,,,0.00,WUHU216HW,2013-10-12 21:03:00,
2013-10-12 17:04:00,75.2,53.7,30.05,North,0,0.0,0.0,47,0.00,,,0.00,WUHU216HW,2013-10-12 21:04:00,
2013-10-12 17:05:00,74.9,53.3,30.05,North,0,0.0,0.0,47,0.00,,,0.00,WUHU216HW,2013-10-12 21:05:00,
2013-10-12 17:06:00,74.5,53.6,30.05,North,0,0.0,0.0,48,0.00,,,0.00,WUHU216HW,2013-10-12 21:06:00,
2013-10-12 17:07:00,74.3,53.4,30.05,North,0,0.0,0.0,48,0.00,,,0.00,WUHU216HW,2013-10-12 21:07:00,
2013-10-12 17:08:00,74.2,53.2,30.05,North,0,0.0,0.0,48,0.00,,,0.00,WUHU216HW,2013-10-12 21:08:00,
2013-10-12 17:09:00,73.8,52.8,30.05,North,0,0.0,0.0,48,0.00,,,0.00,WUHU216HW,2013-10-12 21:09:00,
2013-10-12 17:10:00,73.4,52.5,30.05,North,0,0.0,0.0,48,0.00,,,0.00,WUHU216HW,2013-10-12 21:10:00,
2013-10-12 17:11:00,73.4,53.0,30.05,North,0,0.0,0.0,49,0.00,,,0.00,WUHU216HW,2013-10-12 21:11:00,
2013-10-12 17:12:00,73.1,52.8,30.05,North,0,0.0,0.0,49,0.00,,,0.00,WUHU216HW,2013-10-12 21:12:00,
2013-10-12 17:13:00,73.1,52.8,30.05,North,0,0.0,0.0,49,0.00,,,0.00,WUHU216HW,2013-10-12 21:13:00,
2013-10-12 17:14:00,72.9,52.6,30.05,North,0,0.0,0.0,49,0.00,,,0.00,WUHU216HW,2013-10-12 21:14:00,
2013-10-12 17:15:00,72.7,52.4,30.05,North,0,0.0,0.0,49,0.00,,,0.00,WUHU216HW,2013-10-12 21:15:00,
2013-10-12 17:16:00,72.7,52.4,30.05,North,0,0.0,0.0,49,0.00,,,0.00,WUHU216HW,2013-10-12 21:16:00,
2013-10-12 17:17:00,72.5,52.2,30.05,North,0,0.0,0.0,49,0.00,,,0.00,WUHU216HW,2013-10-12 21:17:00,
2013-10-12 17:18:00,72.5,52.2,30.05,North,0,0.0,0.0,49,0.00,,,0.00,WUHU216HW,2013-10-12 21:18:00,
2013-10-12 17:19:00,72.5,52.2,30.05,North,0,0.0,0.0,49,0.00,,,0.00,WUHU216HW,2013-10-12 21:19:00,
2013-10-12 17:20:00,72.4,52.1,30.05,North,0,0.0,0.0,49,0.00,,,0.00,WUHU216HW,2013-10-12 21:20:00,
2013-10-12 17:21:00,72.4,52.1,30.05,North,0,0.0,0.0,49,0.00,,,0.00,WUHU216HW,2013-10-12 21:21:00,
2013-10-12 17:22:00,72.4,52.1,30.05,North,0,0.0,0.0,49,0.00,,,0.00,WUHU216HW,2013-10-12 21:22:00,
2013-10-12 17:23:00,72.4,52.1,30.05,North,0,0.0,0.0,49,0.00,,,0.00,WUHU216HW,2013-10-12 21:23:00,
2013-10-12 17:24:00,72.2,52.5,30.05,North,0,0.0,0.0,50,0.00,,,0.00,WUHU216HW,2013-10-12 21:24:00,
2013-10-12 17:25:00,72.0,52.4,30.05,North,0,0.0,0.0,50,0.00,,,0.00,WUHU216HW,2013-10-12 21:25:00,
2013-10-12 17:26:00,72.0,52.4,30.05,North,0,0.0,0.0,50,0.00,,,0.00,WUHU216HW,2013-10-12 21:26:00,
2013-10-12 17:27:00,71.8,52.2,30.05,North,0,0.0,0.0,50,0.00,,,0.00,WUHU216HW,2013-10-12 21:27:00,
2013-10-12 17:28:00,71.6,52.0,30.05,North,0,0.0,0.0,50,0.00,,,0.00,WUHU216HW,2013-10-12 21:28:00,
2013-10-12 17:29:00,71.5,51.8,30.05,North,0,0.0,0.0,50,0.00,,,0.00,WUHU216HW,2013-10-12 21:29:00,
2013-10-12 17:30:00,71.3,51.7,30.05,North,0,0.0,0.0,50,0.00,,,0.00,WUHU216HW,2013-10-12 21:30:00,
2013-10-12 17:31:00,71.3,51.7,30.05,North,0,0.0,0.0,50,0.00,,,0.00,WUHU216HW,2013-10-12 21:31:00,
2013-10-12 17:32:00,71.3,51.7,30.05,North,0,0.0,0.0,50,0.00,,,0.00,WUHU216HW,2013-10-12 21:32:00,
2013-10-12 17:33:00,71.1,51.6,30.05,North,0,0.0,0.0,50,0.00,,,0.00,WUHU216HW,2013-10-12 21:33:00,
2013-10-12 17:34:00,70.9,51.4,30.05,North,0,0.0,0.0,50,0.00,,,0.00,WUHU216HW,2013-10-12 21:34:00,
2013-10-12 17:35:00,70.9,51.4,30.05,North,0,0.0,0.0,50,0.00,,,0.00,WUHU216HW,2013-10-12 21:35:00,
2013-10-12 17:36:00,70.7,51.2,30.05,North,0,0.0,0.0,50,0.00,,,0.00,WUHU216HW,2013-10-12 21:36:00,
2013-10-12 17:37:00,70.6,51.0,30.05,North,0,0.0,0.0,50,0.00,,,0.00,WUHU216HW,2013-10-12 21:37:00,
2013-10-12 17:38:00,70.6,51.0,30.05,North,0,0.0,0.0,50,0.00,,,0.00,WUHU216HW,2013-10-12 21:38:00,
2013-10-12 17:39:00,70.4,50.3,30.05,North,0,0.0,0.0,49,0.00,,,0.00,WUHU216HW,2013-10-12 21:39:00,
2013-10-12 17:40:00,70.2,50.1,30.05,North,0,0.0,0.0,49,0.00,,,0.00,WUHU216HW,2013-10-12 21:40:00,
2013-10-12 17:41:00,70.2,50.8,30.05,North,0,0.0,0.0,50,0.00,,,0.00,WUHU216HW,2013-10-12 21:41:00,
2013-10-12 17:42:00,70.0,50.6,30.05,North,0,0.0,0.0,50,0.00,,,0.00,WUHU216HW,2013-10-12 21:42:00,
2013-10-12 17:43:00,70.0,50.6,30.05,North,0,0.0,0.0,50,0.00,,,0.00,WUHU216HW,2013-10-12 21:43:00,
2013-10-12 17:44:00,69.8,50.4,30.05,North,0,0.0,0.0,50,0.00,,,0.00,WUHU216HW,2013-10-12 21:44:00,
2013-10-12 17:45:00,69.8,50.4,30.05,North,0,0.0,0.0,50,0.00,,,0.00,WUHU216HW,2013-10-12 21:45:00,
2013-10-12 17:46:00,69.8,50.4,30.05,North,0,0.0,0.0,50,0.00,,,0.00,WUHU216HW,2013-10-12 21:46:00,
2013-10-12 17:47:00,69.7,50.2,30.05,North,0,0.0,0.0,50,0.00,,,0.00,WUHU216HW,2013-10-12 21:47:00,
2013-10-12 17:48:00,69.7,50.2,30.05,North,0,0.0,0.0,50,0.00,,,0.00,WUHU216HW,2013-10-12 21:48:00,
2013-10-12 17:49:00,69.7,49.7,30.05,North,0,0.0,0.0,49,0.00,,,0.00,WUHU216HW,2013-10-12 21:49:00,
2013-10-12 17:50:00,69.5,49.5,30.05,North,0,0.0,0.0,49,0.00,,,0.00,WUHU216HW,2013-10-12 21:50:00,
2013-10-12 17:51:00,69.5,48.9,30.05,North,0,0.0,0.0,48,0.00,,,0.00,WUHU216HW,2013-10-12 21:51:00,
2013-10-12 17:52:00,69.5,48.9,30.05,North,0,0.0,0.0,48,0.00,,,0.00,WUHU216HW,2013-10-12 21:52:00,
2013-10-12 17:53:00,69.3,48.7,30.05,North,0,0.0,0.0,48,0.00,,,0.00,WUHU216HW,2013-10-12 21:53:00,
2013-10-12 17:54:00,69.3,48.7,30.05,North,0,0.0,0.0,48,0.00,,,0.00,WUHU216HW,2013-10-12 21:54:00,
2013-10-12 17:55:00,69.3,48.7,30.05,North,0,0.0,0.0,48,0.00,,,0.00,WUHU216HW,2013-10-12 21:55:00,
2013-10-12 17:56:00,69.1,48.6,30.05,North,0,0.0,0.0,48,0.00,,,0.00,WUHU216HW,2013-10-12 21:56:00,
2013-10-12 17:57:00,69.1,48.6,30.05,North,0,0.0,0.0,48,0.00,,,0.00,WUHU216HW,2013-10-12 21:57:00,
2013-10-12 17:58:00,68.9,48.4,30.05,North,0,0.0,0.0,48,0.00,,,0.00,WUHU216HW,2013-10-12 21:58:00,
2013-10-12 17:59:00,68.9,48.4,30.05,North,0,0.0,0.0,48,0.00,,,0.00,WUHU216HW,2013-10-12 21:59:00,
2013-10-12 18:00:00,68.8,48.2,30.05,North,0,0.0,0.0,48,0.00,,,0.00,WUHU216HW,2013-10-12 22:00:00,
2013-10-12 18:01:00,68.8,48.2,30.05,North,0,0.0,0.0,48,0.00,,,0.00,WUHU216HW,2013-10-12 22:01:00,
2013-10-12 18:02:00,68.8,48.2,30.05,North,0,0.0,0.0,48,0.00,,,0.00,WUHU216HW,2013-10-12 22:02:00,
2013-10-12 18:03:00,68.6,48.1,30.05,North,0,0.0,0.0,48,0.00,,,0.00,WUHU216HW,2013-10-12 22:03:00,
2013-10-12 18:04:00,68.8,47.6,30.05,North,0,0.0,0.0,47,0.00,,,0.00,WUHU216HW,2013-10-12 22:04:00,
2013-10-12 18:05:00,68.4,47.9,30.05,North,0,0.0,0.0,48,0.00,,,0.00,WUHU216HW,2013-10-12 22:05:00,
2013-10-12 18:06:00,68.4,47.9,30.05,North,0,0.0,0.0,48,0.00,,,0.00,WUHU216HW,2013-10-12 22:06:00,
2013-10-12 18:07:00,68.4,47.9,30.05,North,0,0.0,0.0,48,0.00,,,0.00,WUHU216HW,2013-10-12 22:07:00,
2013-10-12 18:08:00,68.4,47.4,30.05,North,0,0.0,0.0,47,0.00,,,0.00,WUHU216HW,2013-10-12 22:08:00,
2013-10-12 18:09:00,68.2,47.2,30.05,North,0,0.0,0.0,47,0.00,,,0.00,WUHU216HW,2013-10-12 22:09:00,